[{"header": {"dx": 0.06612293990616946, "dy": 0.0552356325346848, "nx": 98, "ny": 59, "la1": 35.046912555036876, "la2": 31.78801023549047, "lo1": -121.43107172385933, "lo2": -114.95102361305473, "refTime": "2026041811", "parameterCategory": 1, "parameterNumber": 2}, "data": [7.55, 7.55, 7.57, 7.57, 6.94, 6.31, 5.7, 4.44, 3.83, 2.8, 2.2, 0.53, 0.0, -0.63, 0.45, -0.95, -2.21, -3.14, -4.15, -4.15, -3.95, -3.13, -2.68, -2.24, -1.79, -1.34, -0.45, -0.0, -0.0, -0.0, 0.4, 0.45, 0.45, 0.63, 0.6, 0.95, 1.2, 0.89, 0.45, -0.0, 0.6, 1.7, 2.68, 3.47, 6.4, 8.24, 9.9, 9.92, 8.93, 3.07, 0.71, 1.16, 2.21, 2.53, 2.84, 3.16, 3.48, 4.46, 4.46, 4.8, 2.6, 0.89, 0.0, -0.0, 1.26, 2.23, 3.2, 4.24, 5.16, 6.79, 7.45, 6.55, 4.87, 3.58, 3.13, 4.02, 3.97, 5.36, 4.47, 2.12, 0.0, 0.0, -0.0, -0.0, -0.63, 0.45, 0.0, 0.45, 1.7, 2.5, 2.51, 1.94, 0.76, 0.76, 0.76, 0.76, 1.35, 1.35, 7.55, 7.83, 7.57, 7.57, 7.19, 6.96, 6.33, 5.06, 4.45, 3.42, 2.82, 0.65, 0.0, 0.0, 0.89, 0.89, -1.26, -2.5, -3.45, -4.0, -4.57, -3.95, -3.13, -1.79, -1.34, -0.89, -0.32, -0.0, -0.6, -0.95, -0.89, -0.89, -0.45, 0.0, 0.45, 1.34, 2.24, 2.68, 1.79, 0.89, 1.34, 2.6, 4.57, 6.7, 7.59, 8.85, 10.18, 8.53, 3.07, 1.24, 1.33, 2.53, 2.84, 3.49, 2.84, 3.16, 3.79, 4.81, 5.43, 5.43, 5.34, 3.51, 1.6, 1.26, 1.58, 2.23, 3.2, 3.74, 4.66, 5.86, 6.79, 6.07, 4.41, 3.58, 2.68, 3.13, 3.97, 5.36, 4.47, 2.12, 0.0, 0.0, -0.0, -0.0, -0.63, 0.45, 0.0, 0.45, 1.7, 2.5, 2.51, 1.94, 0.76, 0.76, 0.76, 0.76, 1.35, 1.35, 7.57, 7.57, 7.57, 7.57, 7.32, 6.94, 6.31, 5.95, 5.08, 4.05, 3.45, 2.2, 1.0, 0.6, 0.63, 0.45, 0.63, -0.57, -2.86, -3.22, -4.09, -4.6, -3.74, -3.04, -1.79, -0.63, -0.63, -0.0, -1.26, -1.79, -2.6, -2.17, -1.79, -0.45, 0.32, 1.79, 2.68, 3.58, 3.53, 2.63, 2.68, 4.73, 7.64, 8.53, 8.46, 8.46, 7.59, 3.45, 1.9, 2.07, 2.79, 3.49, 3.14, 3.16, 2.84, 3.48, 4.46, 5.43, 5.82, 6.0, 6.28, 4.93, 3.2, 2.21, 2.21, 3.22, 3.83, 4.4, 4.8, 5.43, 6.4, 6.79, 5.75, 3.13, 2.17, 2.68, 4.02, 7.12, 5.81, 2.4, 0.0, 0.0, 0.0, 0.0, 0.45, 0.45, 0.0, 0.89, 2.4, 3.49, 5.06, 3.55, 1.41, 0.7, 0.0, 0.0, 0.63, 0.63, 7.57, 7.57, 7.57, 7.57, 7.32, 6.94, 6.96, 6.33, 5.7, 4.69, 4.08, 2.8, 1.4, 1.24, 0.95, 1.2, 1.6, 1.26, 0.0, -3.07, -4.0, -4.15, -4.6, -4.0, -3.32, -2.24, -1.2, -0.6, -0.8, -1.79, -2.91, -3.07, -2.91, -1.6, 0.0, 1.79, 2.68, 3.51, 4.52, 5.05, 6.06, 7.59, 8.27, 7.64, 6.7, 6.07, 3.97, 3.32, 3.79, 4.46, 4.09, 3.84, 3.49, 3.84, 3.48, 3.79, 4.84, 5.43, 6.0, 6.28, 6.28, 4.93, 3.49, 2.41, 3.07, 3.79, 4.46, 4.73, 5.09, 5.72, 6.7, 7.03, 6.79, 3.97, 2.24, 1.86, 3.32, 6.55, 7.15, 2.4, 0.0, 0.0, 0.0, -0.63, -0.89, 0.45, 0.45, 1.7, 3.07, 6.08, 6.01, 3.55, 2.11, 0.63, 0.0, 0.0, 0.0, 0.57, 7.16, 7.57, 7.57, 7.57, 7.32, 7.19, 6.94, 6.31, 5.95, 5.08, 4.71, 3.42, 1.33, 1.2, 1.24, 1.24, 1.86, 1.86, 1.26, -1.9, -4.15, -4.38, -4.38, -4.38, -4.43, -3.51, -2.24, -1.34, -0.63, -0.89, -1.86, -2.84, -3.48, -1.84, 0.0, 1.4, 2.53, 4.98, 6.39, 6.95, 6.88, 6.68, 5.09, 3.82, 4.47, 5.36, 5.64, 5.43, 5.43, 5.05, 4.4, 4.09, 3.49, 3.84, 3.79, 5.09, 5.05, 5.05, 6.0, 6.94, 6.28, 4.4, 2.84, 2.73, 4.01, 4.74, 4.81, 4.11, 4.74, 5.69, 7.07, 7.6, 7.2, 6.0, 3.32, 2.6, 2.5, 4.0, 5.32, 2.0, -0.95, -0.4, 0.0, -0.95, -1.49, -0.57, 1.24, 3.14, 5.43, 6.32, 4.65, 2.98, 2.0, 1.27, 0.0, -0.59, 0.0, 0.66, 7.16, 7.16, 7.57, 7.57, 7.32, 7.19, 6.94, 6.96, 6.33, 5.7, 5.09, 4.08, 1.84, 1.2, 1.49, 1.2, 1.24, 1.9, 1.61, -0.53, -4.0, -5.34, -5.29, -4.38, -3.95, -3.74, -3.2, -1.86, -1.26, 0.45, 0.0, -1.24, -2.07, -1.47, 0.0, 1.36, 2.29, 4.65, 7.02, 5.21, 3.64, 2.53, 2.91, 5.36, 7.15, 6.66, 6.28, 5.34, 5.34, 4.66, 3.82, 3.45, 3.49, 3.49, 3.84, 5.34, 4.93, 4.8, 5.86, 7.71, 6.79, 3.83, 2.79, 2.98, 3.72, 4.74, 5.09, 4.46, 3.48, 4.81, 6.4, 6.94, 7.03, 7.2, 7.06, 5.31, 3.51, 2.91, 3.13, 2.24, -0.63, 0.0, 0.0, -1.2, -1.16, 0.0, 1.35, 4.03, 5.21, 4.56, 2.98, 2.98, 2.73, 1.16, -0.65, -0.61, 0.0, 0.59, 6.92, 6.92, 6.92, 7.32, 7.32, 7.19, 6.94, 6.96, 6.31, 5.95, 5.08, 4.05, 2.07, 1.61, 2.53, 0.71, 1.74, 2.41, 2.51, 1.13, -1.9, -3.82, -5.34, -5.43, -3.83, -3.58, -2.41, -2.41, -1.6, -1.49, -0.63, 0.45, 0.0, 0.0, 0.0, 0.72, 1.52, 4.19, 5.59, 1.88, 0.95, 0.0, 1.74, 5.37, 6.17, 3.82, 5.09, 6.07, 5.6, 6.79, 6.14, 3.32, 3.83, 3.83, 3.83, 4.0, 4.4, 4.0, 5.16, 6.79, 6.28, 4.4, 2.84, 2.84, 2.3, 3.79, 5.09, 4.8, 3.32, 4.24, 5.31, 5.31, 5.64, 7.12, 7.56, 7.6, 5.36, 3.51, 3.07, 4.73, 1.7, 0.61, 0.0, 0.0, 0.0, 0.65, 2.35, 2.9, 3.69, 2.8, 2.72, 2.66, 1.41, 0.0, -0.6, 0.0, 0.0, 0.59, 6.92, 6.92, 6.92, 6.92, 6.92, 7.19, 6.94, 6.96, 6.7, 6.33, 5.06, 4.69, 3.07, 2.15, 3.16, 1.24, 1.4, 3.16, 3.49, 3.45, 2.68, 2.4, 0.45, -2.53, -3.43, -2.99, -2.8, -3.0, -4.11, -2.86, -2.21, -0.57, 0.0, 0.76, 0.73, 0.72, 0.69, 2.29, 3.22, 1.79, -0.0, 0.45, 0.71, 1.58, 1.34, 1.2, 2.84, 6.0, 6.54, 6.88, 3.07, 3.07, 3.83, 4.09, 4.4, 4.22, 4.4, 4.8, 5.34, 6.07, 6.07, 4.24, 2.4, 1.24, 0.65, 1.88, 5.34, 4.87, 2.68, 2.68, 4.02, 4.92, 6.21, 7.45, 7.45, 6.67, 5.77, 4.93, 5.86, 7.56, 7.6, 2.48, 0.67, 0.0, 0.67, 2.01, 2.83, 2.31, 2.35, 2.04, 2.12, 0.64, 0.0, 0.0, 0.45, 0.95, 1.2, 0.7, 6.92, 6.92, 6.92, 6.92, 7.19, 7.19, 6.94, 6.94, 6.96, 6.31, 5.69, 4.63, 3.4, 2.64, 2.2, 1.6, 2.53, 2.79, 2.86, 2.8, 3.13, 3.51, 3.51, 1.79, -1.16, -1.66, -2.53, -4.19, -5.59, -3.79, -1.66, -0.96, 0.0, 0.88, 1.35, 0.73, 0.96, 0.87, 0.8, 0.45, 0.45, 0.0, 0.45, 0.45, -0.0, 0.57, 2.0, 3.47, 5.34, 4.93, 5.75, 2.84, 3.84, 4.46, 4.46, 4.84, 5.43, 6.0, 6.28, 6.55, 6.51, 4.41, 1.7, 0.57, 0.71, 2.53, 5.16, 5.31, 2.24, 1.79, 2.68, 5.32, 6.98, 7.48, 6.58, 4.87, 4.02, 5.31, 7.56, 8.49, 8.94, 4.0, 1.35, 1.36, 2.06, 2.0, 2.06, 1.35, 0.66, 0.0, 0.0, 0.0, -0.61, 0.0, 1.79, 2.17, 1.58, 1.16, 6.92, 6.92, 6.92, 6.92, 7.19, 7.19, 6.94, 6.94, 6.96, 6.31, 6.07, 5.92, 5.32, 4.2, 2.4, 2.4, 3.27, 2.44, 2.09, 2.12, 0.88, 1.6, 2.8, 2.24, 0.0, -1.9, -2.5, -3.22, -4.89, -1.84, 0.0, 0.0, 0.0, 0.0, 0.0, 0.79, 0.76, 0.0, -0.89, 0.0, 0.45, 0.45, -0.45, -0.45, -0.0, -0.0, 0.89, 1.79, 2.6, 2.86, 2.84, 2.79, 3.48, 4.19, 4.46, 5.09, 6.0, 6.79, 6.98, 7.11, 6.66, 4.85, 3.72, 0.71, 1.49, 2.21, 4.93, 5.2, 2.6, 1.79, 2.6, 5.64, 7.48, 7.01, 6.66, 5.32, 4.66, 4.93, 6.42, 7.94, 8.91, 8.49, 2.53, 1.27, 1.27, 1.84, 1.84, 1.2, 0.0, 0.0, -0.65, -0.59, -0.61, 0.0, 1.86, 2.6, 1.86, 1.16, 6.92, 6.92, 6.92, 7.19, 7.19, 7.19, 6.94, 6.94, 6.94, 6.56, 6.31, 6.31, 6.34, 5.72, 4.03, 3.09, 3.15, 3.27, 2.23, 1.12, 0.0, 0.0, -0.65, -0.95, -1.34, -1.79, -1.79, -1.34, -1.49, -0.79, -0.7, -0.57, 0.0, 0.0, 0.0, 0.0, 0.0, -0.63, -1.2, -0.63, 0.0, 0.0, 0.0, 1.34, -0.0, -0.0, -0.0, 1.2, 1.6, 1.9, 1.88, 2.21, 2.86, 3.83, 4.8, 5.43, 6.79, 7.45, 7.6, 7.6, 6.26, 3.74, 2.53, 1.6, 1.49, 2.79, 4.84, 5.43, 3.74, 2.68, 3.95, 5.86, 6.85, 6.11, 6.11, 6.11, 5.44, 4.46, 5.46, 7.03, 8.06, 8.38, 7.15, 2.21, 1.61, 2.4, 3.07, 3.07, 2.24, 1.79, 0.57, 0.0, 0.0, 0.61, 1.88, 2.91, 1.86, 1.0, 6.92, 6.92, 6.92, 6.92, 6.94, 6.94, 6.94, 6.94, 6.94, 6.96, 6.31, 6.31, 6.71, 6.7, 6.34, 5.71, 5.08, 5.1, 4.69, 2.86, 0.0, -1.4, -2.49, -3.13, -3.13, -3.82, -3.39, -2.5, -2.24, -3.32, -3.2, -2.24, -2.4, -2.4, -1.79, -2.23, -2.5, -2.6, -2.12, -1.34, -0.45, -0.0, -0.0, -0.0, -1.27, -0.65, -0.71, -0.0, 0.95, 1.2, 1.34, 1.79, 2.24, 2.68, 3.97, 5.31, 7.11, 7.6, 7.56, 6.21, 3.07, 2.84, 1.66, -0.0, 0.76, 3.16, 5.46, 6.07, 5.86, 4.92, 4.87, 5.44, 5.44, 4.66, 4.73, 6.51, 5.34, 4.46, 5.72, 6.96, 6.08, 5.86, 6.22, 4.02, 2.63, 2.63, 3.53, 3.97, 3.97, 3.97, 2.91, 1.2, 0.0, 0.61, 2.51, 3.45, 2.6, 1.26, 6.92, 6.92, 6.92, 6.92, 6.94, 6.94, 6.94, 6.94, 6.94, 6.7, 6.96, 6.7, 6.97, 6.97, 6.98, 6.64, 6.57, 6.23, 6.23, 6.51, 5.37, 3.39, 0.8, -0.45, -2.24, -4.47, -5.7, -6.47, -7.06, -7.6, -4.87, -3.58, -4.24, -3.74, -3.07, -3.13, -3.53, -3.13, -2.68, -2.17, -1.26, -1.24, -0.65, -0.54, -0.85, -0.85, -0.8, 0.45, 0.63, 1.58, 0.54, 0.65, 1.33, 2.98, 3.49, 4.11, 4.4, 6.71, 5.77, 1.79, -0.0, 0.79, -0.0, -0.0, -0.0, 1.26, 2.86, 5.43, 5.34, 3.95, 3.13, 3.51, 4.24, 4.66, 5.64, 7.21, 6.79, 5.82, 5.72, 5.36, 3.79, 3.14, 5.69, 6.94, 4.47, 4.41, 4.73, 4.0, 4.24, 4.73, 5.16, 2.4, 1.2, 1.33, 2.79, 4.09, 2.91, 1.7, 6.92, 6.92, 6.92, 6.92, 6.94, 6.94, 6.94, 6.94, 6.94, 6.7, 6.96, 6.96, 6.96, 7.33, 7.61, 7.59, 7.51, 7.44, 7.35, 7.76, 8.4, 8.06, 6.97, 4.34, 0.6, -1.7, -4.47, -6.23, -6.68, -6.71, -6.26, -3.58, -5.73, -3.13, -2.68, -2.68, -2.68, -2.68, -2.6, -2.4, -1.9, -1.9, -1.24, -1.27, -1.27, -1.6, -0.95, 0.45, 0.0, 0.71, 0.87, 0.96, 1.96, 2.12, 1.14, 0.7, 0.98, 3.72, 3.9, -0.0, -1.9, -1.2, -0.0, -0.0, 0.0, 0.0, 0.89, 1.79, 3.82, 1.86, 1.86, 1.79, 1.86, 3.07, 6.0, 7.03, 6.4, 5.43, 5.43, 3.84, 2.21, 3.07, 5.72, 6.96, 5.6, 6.28, 5.86, 3.45, 3.07, 3.82, 5.77, 3.39, 2.5, 2.53, 3.48, 4.09, 3.07, 2.17, 6.92, 6.92, 6.92, 6.92, 6.94, 6.94, 6.53, 6.53, 6.94, 6.7, 6.96, 6.96, 7.33, 7.61, 7.33, 7.61, 7.86, 7.81, 8.0, 8.27, 8.82, 9.42, 9.21, 8.0, 6.3, 3.35, 0.6, -1.79, -3.13, -4.47, -4.89, -4.44, -4.02, -3.58, -3.13, -2.68, -2.68, -1.34, -3.39, -2.23, -1.9, -2.23, -1.4, -1.2, -0.0, -0.0, -0.0, -0.0, 0.45, 0.0, 0.65, 1.6, 1.49, 0.89, 0.45, 0.6, 0.76, 2.73, 2.8, -0.0, -1.2, -0.95, -0.0, 0.0, 0.0, 0.0, 0.0, 0.99, 0.8, 0.63, 0.57, -0.0, 0.89, 2.17, 3.45, 5.43, 4.73, 5.09, 4.46, 2.8, 1.86, 2.6, 4.66, 5.6, 4.09, 5.43, 5.09, 3.45, 2.8, 3.32, 4.73, 5.2, 4.0, 3.45, 3.83, 3.07, 2.4, 2.4, 6.92, 6.92, 6.92, 6.92, 6.94, 6.53, 6.53, 6.53, 6.53, 6.94, 6.94, 6.96, 7.33, 7.61, 7.33, 7.93, 7.9, 8.19, 8.65, 8.55, 9.35, 9.71, 9.92, 9.7, 8.48, 7.26, 6.04, 4.34, 2.68, 0.89, -0.89, -2.68, -3.07, -2.68, -2.4, -1.86, -1.86, -1.9, -3.16, -3.48, -1.49, -0.57, -0.0, -0.0, -0.0, -0.0, -0.0, -0.0, -0.0, 1.34, 1.79, 1.34, 1.6, 0.8, 0.6, 0.45, 1.58, 1.9, 1.34, 0.63, -0.0, 0.89, 1.34, 1.79, 0.63, 0.0, 0.0, 0.0, 0.0, -0.0, -0.0, -0.0, 0.8, 1.7, 2.68, 2.91, 3.45, 3.22, 2.4, 1.79, 2.17, 2.68, 3.58, 5.31, 4.87, 2.8, 3.14, 3.07, 2.8, 2.91, 5.16, 4.09, 2.86, 3.6, 5.44, 3.6, 3.07, 3.07, 6.5, 6.92, 6.92, 6.92, 6.53, 6.53, 6.53, 6.29, 6.29, 6.7, 6.94, 7.22, 7.33, 7.61, 7.33, 7.93, 8.22, 8.45, 8.73, 8.84, 9.1, 9.71, 9.92, 9.7, 9.57, 9.24, 9.23, 8.42, 7.51, 6.16, 4.44, 2.24, 0.45, -0.0, -0.57, -1.88, -2.84, -2.95, -1.98, -2.2, -2.48, -0.8, -1.4, -0.0, -0.0, -0.0, -0.0, -0.0, -0.0, 1.58, 1.58, 1.9, 1.9, 1.9, 2.24, 2.68, 3.58, 2.8, 1.4, -0.0, 1.58, 1.58, 1.58, -0.0, 1.58, 1.34, 0.71, 0.0, 0.0, 0.0, 0.45, -0.89, 0.0, 1.2, 1.79, 1.7, 1.26, 0.95, 0.89, 1.6, 2.4, 3.53, 4.47, 5.81, 6.21, 3.07, 1.86, 2.17, 2.8, 4.93, 6.54, 4.0, 2.53, 3.49, 6.0, 4.4, 2.79, 2.79, 6.5, 6.5, 6.5, 6.27, 6.53, 6.53, 6.53, 6.29, 6.29, 6.7, 6.94, 7.22, 7.6, 7.61, 7.33, 7.9, 8.22, 8.5, 8.73, 8.84, 9.48, 9.88, 9.92, 9.43, 9.77, 10.22, 10.14, 10.01, 9.11, 8.21, 7.21, 5.09, 3.58, 2.17, 0.54, -1.2, -2.53, -3.58, -2.6, -1.58, -0.8, -0.8, -0.6, -0.0, -0.0, -0.0, -0.0, -0.0, 1.26, 1.58, 1.9, 1.9, 1.9, 1.58, 2.24, 3.13, 3.39, 2.53, 1.4, 1.9, 2.4, 3.13, 2.24, -0.0, -1.4, -0.0, 0.45, 0.85, 0.76, 0.0, -1.58, -1.9, -0.8, 0.0, 0.45, -1.2, -1.58, -0.6, 0.63, 1.34, 2.24, 3.53, 5.16, 6.42, 4.24, 2.8, 2.5, 2.12, 3.45, 4.84, 5.6, 4.4, 3.14, 3.79, 5.46, 4.09, 3.84, 3.84, 6.5, 6.5, 6.5, 6.27, 6.53, 6.53, 6.53, 6.29, 6.29, 6.7, 6.7, 7.22, 6.96, 7.33, 6.97, 7.18, 7.6, 7.9, 8.15, 8.55, 9.88, 10.91, 9.88, 8.14, 7.71, 9.11, 8.48, 7.47, 6.54, 7.2, 6.6, 5.57, 4.44, 3.13, 1.6, -0.65, -2.84, -3.88, -2.4, -1.58, -0.99, -0.8, -0.0, -0.0, -0.0, -0.0, -0.0, -0.0, -0.0, -0.0, 1.2, 1.2, 1.2, 1.2, 1.4, 2.8, 3.2, 3.2, 3.2, 3.13, 3.13, 3.13, 2.24, -0.0, -0.8, -0.95, 0.45, 2.41, 2.79, 1.58, 0.0, 0.6, 1.86, 2.17, 1.2, -0.63, -2.53, -2.07, 0.0, 1.2, 3.49, 5.09, 6.07, 5.72, 5.09, 4.43, 3.79, 4.29, 5.43, 4.07, 4.12, 5.09, 5.09, 4.07, 4.43, 4.46, 3.48, 3.48, 6.5, 6.5, 6.27, 6.27, 6.53, 6.53, 6.29, 6.29, 6.29, 6.29, 6.96, 6.96, 6.96, 7.33, 7.33, 7.32, 7.6, 6.98, 5.94, 7.06, 9.27, 10.41, 9.59, 8.03, 7.35, 7.69, 7.07, 6.79, 5.59, 4.55, 3.35, 3.32, 2.4, 2.17, 1.34, -0.0, -0.54, -1.88, -2.21, -1.88, -1.16, -0.61, -0.0, -0.0, -0.0, -0.0, -0.0, -0.0, -0.0, -0.0, -0.0, -0.0, -0.0, 1.2, 0.6, 1.26, 3.82, 2.12, 1.79, 3.58, 3.13, 2.68, 1.79, -0.0, -0.6, -0.63, 0.0, 2.0, 3.51, 3.51, 3.95, 7.11, 10.25, 10.28, 7.21, 2.5, 0.0, -2.29, 0.0, 1.55, 3.22, 4.74, 4.74, 3.72, 3.48, 2.51, 1.84, 1.88, 4.07, 2.73, 2.88, 4.65, 5.37, 3.55, 3.55, 4.65, 4.36, 4.36, 6.27, 6.27, 6.27, 6.27, 6.53, 6.53, 6.29, 6.29, 6.29, 6.56, 6.96, 6.96, 6.96, 6.96, 7.33, 7.61, 7.32, 6.98, 6.35, 6.88, 8.27, 9.42, 9.42, 8.82, 8.82, 8.78, 8.0, 6.15, 3.48, 1.9, 1.26, 1.2, 0.95, 1.2, 1.34, 1.26, 0.57, -0.0, -0.0, -0.61, -0.59, -0.0, -0.0, -0.0, -0.0, -0.0, -0.0, -0.0, -0.0, -0.0, -0.0, -0.0, -0.0, -0.0, 1.2, 1.26, 1.86, 2.23, 3.13, 2.24, 1.79, 0.89, 1.34, -2.24, -0.89, -0.89, -0.45, 0.45, 1.58, 3.35, 5.43, 8.24, 10.93, 11.18, 9.08, 6.32, 0.63, -1.52, -2.4, 0.0, 2.11, 2.98, 3.49, 3.14, 2.4, 1.2, 0.45, 0.8, 2.91, 3.14, 3.64, 4.46, 5.3, 3.32, 2.66, 3.69, 4.02, 4.02, 5.83, 6.27, 6.27, 6.53, 6.53, 6.29, 6.29, 6.29, 6.29, 6.56, 6.96, 6.96, 6.96, 6.96, 7.33, 7.61, 7.61, 7.61, 7.95, 8.56, 8.82, 8.78, 8.19, 8.45, 8.78, 9.21, 8.82, 7.2, 4.8, 3.07, 2.4, 1.7, 1.7, 1.79, 2.24, 2.4, 1.9, 1.49, 0.65, -0.0, -0.0, -0.0, -0.0, -0.0, -0.0, -0.0, -0.0, -0.0, -0.0, -0.0, -0.0, -0.0, -0.0, -0.0, -0.0, 1.4, 1.24, 1.49, 1.58, 1.34, -0.89, -1.34, -1.34, -1.34, -0.89, -0.63, -0.63, -0.0, -0.0, 0.8, 1.9, 4.29, 3.07, 2.6, 3.2, 4.8, 4.94, 0.66, -1.23, -1.3, 0.0, 1.27, 1.84, 2.15, 1.7, 0.89, 0.0, 1.26, 3.49, 6.25, 6.68, 5.59, 4.94, 3.38, 1.76, 1.94, 2.66, 2.66, 5.83, 5.83, 5.83, 6.53, 6.29, 6.29, 6.29, 6.29, 6.56, 6.56, 6.96, 6.96, 6.96, 6.96, 7.33, 7.61, 7.61, 7.95, 8.56, 9.46, 9.08, 9.01, 8.0, 8.0, 8.37, 8.96, 9.2, 8.22, 7.01, 5.81, 5.09, 4.34, 3.98, 3.58, 3.58, 3.53, 3.39, 3.07, 2.21, 1.33, 0.59, 0.57, 0.59, 0.51, 0.61, -0.0, -0.0, -0.0, -0.0, -0.0, -0.0, -0.0, -0.0, -0.0, -0.0, -0.0, -0.0, -0.0, -0.0, -0.89, -1.79, -1.34, -0.89, -0.63, -0.95, -0.6, -0.0, 0.45, 0.0, 0.0, 0.0, 0.45, -0.0, -0.0, 0.0, 2.18, 5.13, 5.06, 1.88, 0.0, -0.66, 0.0, 0.0, 0.0, 0.54, 0.71, 0.65, 1.49, 4.46, 6.88, 7.61, 6.23, 5.0, 2.51, 1.88, 1.84, 2.73, 2.73, 5.62, 5.62, 5.86, 5.86, 6.29, 6.29, 6.29, 6.29, 6.56, 6.56, 6.96, 6.96, 6.96, 6.96, 6.96, 7.61, 7.61, 7.95, 8.85, 9.13, 9.37, 9.21, 8.55, 8.27, 7.9, 8.68, 8.68, 8.91, 8.22, 7.71, 7.01, 6.47, 5.7, 5.34, 4.92, 4.88, 4.34, 4.11, 3.35, 2.51, 1.8, 1.11, 1.11, 1.13, 0.61, 0.61, -0.0, -0.0, -0.0, -0.0, -0.0, -0.0, -0.0, -0.0, -0.0, -0.0, -0.0, -0.0, -0.0, 0.45, -0.45, -1.2, -0.63, -0.89, -1.26, -0.8, -0.0, -0.0, 0.0, 0.0, 0.71, -0.89, -0.0, -0.0, 0.45, 1.05, 4.46, 5.37, 5.37, 2.4, 0.65, -1.11, -1.41, -0.7, 0.0, 0.0, 0.78, 2.44, 4.5, 4.46, 6.24, 3.43, 2.53, 2.4, 1.86, 2.23, 3.43, 3.43, 5.86, 5.86, 5.86, 5.86, 5.86, 6.29, 6.29, 6.56, 6.56, 6.56, 6.31, 6.7, 6.7, 6.7, 7.24, 7.61, 7.61, 7.95, 8.53, 8.82, 9.08, 9.3, 9.21, 9.1, 8.82, 8.68, 8.68, 8.51, 8.51, 8.22, 7.51, 7.21, 6.94, 6.23, 5.81, 5.81, 5.24, 4.6, 4.52, 3.43, 2.48, 1.76, 1.58, 1.27, 1.13, 0.61, 0.65, 0.54, 0.54, -0.0, -0.0, -0.0, -0.0, -1.26, -1.26, -0.0, -0.0, -0.0, 0.0, 0.45, 0.89, 0.0, -0.6, -1.34, -1.26, -0.8, -0.57, -0.6, -0.45, 0.6, 0.99, 0.57, 0.89, 0.89, 0.89, 1.2, 2.5, 3.48, 5.59, 2.8, 2.5, 0.51, -1.41, -1.4, -0.71, 0.0, 0.73, 2.23, 2.12, 0.59, 0.0, 1.58, 2.4, 2.6, 2.91, 3.14, 3.78, 3.78, 5.86, 5.86, 5.86, 5.86, 5.86, 5.86, 6.29, 6.56, 6.31, 6.31, 6.31, 6.7, 6.7, 6.97, 6.97, 7.33, 7.61, 7.95, 8.53, 8.82, 8.5, 8.78, 8.94, 9.21, 9.1, 8.96, 8.68, 8.51, 8.0, 7.81, 7.31, 7.01, 6.94, 6.6, 6.23, 5.81, 5.78, 5.24, 4.6, 3.88, 3.16, 2.22, 1.76, 1.8, 1.6, 1.16, 1.2, 0.65, 0.65, -0.0, -0.0, -0.0, -0.0, -1.58, -1.58, -1.58, -1.26, -0.0, 0.45, 0.0, 0.95, 1.2, 0.0, 0.45, -0.6, -0.8, -0.8, -0.6, -0.63, 0.0, 0.71, 0.85, 1.26, 1.2, 1.34, 1.34, 2.4, 3.78, 4.46, 3.16, 3.48, 2.51, 0.57, -1.41, -1.98, -0.72, 0.69, 0.63, 0.0, -1.0, -0.53, 1.49, 3.07, 3.6, 3.6, 3.83, 3.72, 3.72, 5.64, 5.64, 5.64, 5.64, 5.64, 5.64, 6.06, 6.31, 6.31, 6.31, 6.31, 6.31, 6.97, 6.97, 6.97, 6.97, 7.33, 7.61, 8.24, 8.82, 8.5, 8.78, 8.73, 9.21, 9.1, 9.35, 9.2, 8.91, 8.0, 7.81, 7.51, 6.79, 6.3, 6.04, 5.78, 5.36, 5.36, 5.33, 4.77, 4.11, 3.72, 2.86, 2.48, 2.23, 1.8, 1.61, 1.2, 1.2, 0.65, 0.53, -0.0, -0.0, -0.0, -0.71, -1.2, -1.2, -1.79, -1.79, 0.45, 0.45, 0.95, 1.26, 1.26, 0.63, -0.0, -0.6, -0.63, -0.45, -0.6, 0.0, 0.76, 1.6, 1.2, 0.57, 0.45, 0.89, 1.7, 2.79, 4.43, 3.07, 3.22, 3.55, 2.0, 0.0, -1.88, -0.64, 0.0, 0.0, -1.24, -1.61, -1.11, 0.0, 2.84, 3.48, 3.78, 3.72, 4.09, 4.09, 5.2, 5.2, 5.64, 5.64, 5.64, 5.64, 5.89, 6.31, 6.31, 6.31, 6.31, 6.58, 6.97, 6.97, 6.97, 6.97, 7.33, 7.61, 7.93, 8.22, 8.5, 8.78, 8.45, 8.73, 8.65, 9.1, 8.96, 8.68, 8.51, 8.22, 7.51, 7.21, 6.3, 6.04, 5.7, 5.34, 5.36, 4.92, 4.44, 4.3, 3.35, 2.84, 2.48, 2.48, 2.48, 2.51, 1.61, 1.2, 0.65, 0.53, -0.0, -0.0, -0.0, -0.54, -1.24, -1.34, -1.79, -2.24, -1.34, -0.89, 0.0, 1.26, 1.86, 1.79, 0.63, -0.0, -0.45, 0.0, 0.0, 0.0, 0.71, 2.21, 2.15, 0.65, -0.95, -0.89, 0.0, 1.86, 2.53, 3.35, 2.98, 4.46, 4.47, 1.27, 0.0, -1.35, -1.88, -2.23, -1.88, -1.13, -0.7, 0.0, 2.0, 3.43, 3.15, 3.48, 3.78, 3.78, 5.2, 5.2, 5.2, 5.64, 5.64, 5.89, 5.89, 6.31, 6.31, 6.31, 6.58, 6.58, 6.97, 6.97, 6.97, 6.97, 7.61, 7.61, 7.61, 7.93, 8.22, 8.45, 8.45, 8.38, 8.65, 8.08, 8.55, 8.43, 8.28, 8.0, 7.71, 7.09, 6.79, 6.47, 5.7, 5.34, 5.36, 4.92, 4.44, 3.87, 3.6, 2.84, 2.51, 1.61, 1.61, 2.48, 2.23, 1.16, 0.53, 0.53, -0.0, -0.0, -0.0, -0.0, -0.57, -1.2, -0.89, -2.24, -1.79, -1.34, 0.45, 0.8, 1.7, 1.34, 0.45, -0.45, -0.45, 0.0, 0.45, 0.0, 0.0, 2.8, 5.34, 3.84, 0.0, -0.95, -0.63, 0.0, 1.61, 2.84, 2.79, 4.08, 5.1, 4.47, 1.84, 0.0, -2.48, -2.73, -1.41, -0.63, -0.67, 0.0, 0.61, 2.66, 2.73, 3.15, 3.78, 3.78, 5.2, 5.2, 5.2, 5.89, 5.89, 5.89, 5.89, 5.89, 6.31, 6.31, 6.31, 6.58, 6.33, 6.71, 6.71, 6.71, 6.98, 7.32, 7.61, 7.61, 8.22, 8.19, 8.19, 8.15, 7.81, 8.08, 8.0, 7.9, 8.15, 8.0, 7.71, 7.51, 6.6, 6.3, 5.99, 5.7, 5.33, 4.92, 4.47, 3.98, 3.6, 3.14, 2.84, 2.23, 2.23, 1.2, 1.49, 1.84, 1.16, 0.53, 0.65, -0.0, -0.0, -0.0, -0.0, -0.0, -0.95, -1.79, -1.79, -1.34, -0.45, 0.45, 1.34, 0.45, 0.0, -0.63, -1.2, -0.89, 0.45, 0.0, 0.65, 2.3, 5.34, 7.71, 6.07, 2.53, 0.54, 0.0, 0.0, 2.15, 3.48, 4.47, 4.69, 5.1, 4.43, 1.9, -0.53, -1.76, -1.26, -0.67, -0.64, -0.7, 0.0, 1.35, 1.94, 2.66, 3.43, 3.43, 5.44, 5.44, 5.44, 5.89, 5.89, 5.89, 5.89, 5.89, 6.31, 6.31, 6.31, 6.33, 6.33, 6.71, 6.71, 6.98, 6.98, 7.32, 7.32, 7.6, 7.6, 7.6, 7.86, 8.15, 7.81, 8.08, 7.8, 7.72, 7.61, 7.87, 7.48, 7.31, 7.01, 6.72, 6.04, 5.7, 5.34, 4.92, 4.47, 3.98, 3.39, 2.79, 2.79, 2.53, 1.88, 0.99, 1.24, 1.61, 1.16, 0.65, 0.65, 0.54, -0.0, -0.0, -0.0, -0.0, -0.0, -0.6, -1.6, -1.34, -0.89, 0.0, 0.0, -0.6, 0.0, 0.0, -0.57, -1.49, 0.0, 2.21, 2.47, 1.52, 2.07, 5.59, 8.36, 8.55, 5.46, 1.9, 0.54, 1.16, 2.48, 3.38, 4.05, 4.45, 5.08, 4.37, 2.21, 0.0, -0.59, -0.63, -1.3, -1.19, 0.0, 0.0, 1.3, 2.04, 2.66, 2.66, 5.23, 5.23, 5.23, 5.23, 5.67, 5.67, 5.67, 5.67, 5.67, 6.07, 6.33, 6.33, 6.33, 6.33, 6.71, 6.98, 6.98, 6.98, 7.32, 6.98, 7.3, 7.3, 7.59, 7.86, 7.81, 7.51, 7.44, 7.15, 6.07, 6.95, 7.48, 7.48, 6.8, 6.51, 6.3, 5.99, 5.7, 5.33, 4.47, 4.02, 3.39, 3.07, 2.79, 2.53, 1.88, 1.9, 1.49, 1.2, 0.65, 0.65, 0.54, 0.54, -0.0, -0.0, -0.0, -0.0, -0.0, -0.0, -0.8, -1.7, -1.27, -1.26, -1.26, -1.26, -0.95, 0.0, 0.63, 0.0, 0.0, 2.32, 2.4, 0.61, 0.0, 2.21, 5.77, 7.71, 6.94, 2.86, 1.9, 2.21, 2.53, 1.61, 1.84, 3.45, 4.47, 5.06, 4.37, 3.35, 1.24, 0.0, -0.59, -1.11, -0.61, 0.0, 0.67, 1.41, 1.88, 1.88, 5.23, 5.23, 5.23, 5.23, 5.67, 5.67, 5.67, 5.67, 5.67, 5.67, 6.33, 6.33, 6.33, 6.33, 6.71, 6.98, 6.98, 6.98, 6.7, 6.98, 6.98, 6.98, 7.59, 7.59, 7.55, 7.51, 7.44, 6.87, 6.79, 5.46, 6.41, 6.95, 6.56, 6.28, 6.1, 5.81, 5.57, 5.24, 4.88, 4.02, 3.53, 3.39, 3.07, 2.68, 2.5, 1.9, 1.24, 0.54, 0.54, 0.54, 0.54, 0.54, -0.0, -0.0, -0.0, -0.0, -0.0, -0.0, -0.0, -1.26, -2.24, -1.26, -2.8, -1.7, -1.34, 0.0, 0.89, 1.34, 1.9, 1.49, 1.26, 0.89, 0.71, 1.4, 3.45, 3.82, 2.8, 1.86, 2.17, 3.07, 3.58, 2.63, 1.58, 1.88, 4.12, 5.06, 5.01, 5.21, 3.07, 2.4, 0.99, 0.0, -0.51, -0.55, 0.0, 0.7, 0.63, 0.63, 5.23, 5.23, 5.23, 5.23, 5.67, 5.67, 5.67, 5.67, 5.67, 5.92, 6.33, 6.33, 6.33, 6.33, 6.61, 6.98, 6.7, 6.7, 6.7, 6.98, 6.98, 6.69, 6.97, 7.27, 7.55, 7.51, 6.92, 6.87, 6.87, 6.51, 6.15, 6.41, 6.41, 6.28, 5.89, 5.6, 5.57, 5.24, 4.88, 4.47, 3.58, 3.39, 2.91, 2.68, 2.15, 1.58, 0.71, 0.54, 0.54, 0.54, 0.54, -0.0, -0.0, -0.0, -0.0, -0.0, -0.0, -0.0, -0.0, -0.0, -1.79, -1.79, -1.34, -1.34, 0.45, 0.0, 0.0, 0.89, 1.34, 1.6, 1.34, 0.89, 1.6, 3.22, 3.72, 2.5, 2.12, 1.7, 2.6, 4.41, 5.36, 3.58, 3.07, 2.5, 2.53, 4.71, 5.59, 5.86, 4.0, 3.07, 2.17, 0.89, 0.63, 0.0, 0.0, 0.0, 0.63, 0.63, 5.23, 5.23, 5.23, 5.23, 5.67, 5.67, 5.67, 5.67, 5.92, 5.92, 5.92, 6.33, 6.33, 6.33, 6.33, 6.34, 6.34, 6.34, 6.34, 6.63, 6.69, 6.69, 6.97, 6.97, 7.27, 7.23, 6.92, 6.87, 6.87, 6.57, 6.15, 6.41, 6.03, 6.03, 5.75, 5.6, 5.4, 5.09, 4.77, 4.44, 4.02, 3.53, 2.91, 2.91, 2.4, 1.24, 0.71, 0.71, 0.71, 0.71, -0.0, -0.0, -0.0, -0.0, -0.0, -0.0, -0.0, -0.0, -0.0, -0.0, -0.6, 0.89, 0.89, 0.89, 0.89, 0.89, 0.0, 0.45, 0.0, 0.63, 1.2, 0.8, 2.84, 5.77, 6.08, 4.0, 3.58, 4.09, 5.82, 5.86, 5.36, 4.47, 3.32, 2.5, 2.86, 4.29, 4.94, 4.09, 4.0, 3.07, 2.17, 0.89, 0.63, 0.89, 0.54, 0.0, 0.0, 0.0, 5.23, 5.23, 5.23, 5.23, 5.23, 5.67, 5.92, 5.92, 5.92, 5.92, 5.92, 5.92, 6.33, 6.08, 6.08, 6.34, 6.34, 6.34, 6.34, 6.35, 6.35, 6.64, 6.64, 6.67, 6.67, 6.95, 6.92, 6.59, 6.52, 6.23, 6.15, 5.93, 5.59, 5.86, 5.86, 5.75, 5.08, 5.09, 4.6, 4.44, 4.02, 3.58, 3.07, 2.4, 2.0, 1.26, 0.57, -0.0, -0.0, -0.0, -0.0, -0.0, -0.0, -0.0, -0.0, -0.0, -0.0, -0.0, -0.0, -0.0, -0.57, -0.8, -0.0, -0.0, 0.45, 0.89, 0.0, -0.45, 0.0, 0.0, 0.6, 0.71, 2.23, 6.28, 7.28, 6.07, 5.36, 5.86, 6.28, 5.32, 4.92, 3.09, 2.63, 2.4, 2.15, 2.5, 3.45, 3.6, 3.6, 2.91, 1.79, 0.89, 0.63, 0.63, 1.34, 0.57, -0.64, -0.64, 5.23, 5.23, 5.23, 5.23, 5.23, 5.67, 5.92, 5.92, 5.92, 5.92, 5.69, 5.69, 5.69, 6.08, 6.34, 6.34, 6.34, 6.34, 6.35, 6.35, 6.35, 6.35, 6.35, 6.35, 6.67, 6.95, 6.64, 6.59, 6.28, 6.23, 5.65, 5.93, 5.93, 5.59, 5.86, 5.75, 5.08, 4.9, 4.6, 4.34, 3.98, 3.13, 2.63, 1.7, 2.17, 1.26, -0.0, -0.0, -0.0, -0.0, -0.0, -0.0, -0.0, -0.0, -0.0, -0.0, -0.0, -0.0, -0.0, -0.57, -0.57, -0.8, -1.79, 0.45, 0.0, 0.89, 0.0, 0.45, 0.0, 0.0, 0.0, 0.0, 0.6, 4.34, 7.56, 7.89, 6.07, 6.07, 6.07, 4.73, 3.53, 2.68, 2.63, 2.6, 2.4, 2.91, 3.32, 3.39, 3.32, 2.63, 1.34, 0.89, 0.89, 0.89, 0.63, 1.34, 0.0, 0.0, 5.23, 5.23, 5.23, 5.23, 5.23, 5.26, 5.69, 5.69, 5.69, 5.69, 5.69, 5.69, 5.69, 5.69, 6.34, 6.34, 6.34, 6.08, 6.35, 6.35, 6.08, 6.35, 6.35, 6.35, 6.35, 6.65, 6.64, 6.32, 6.28, 6.23, 5.65, 5.93, 5.93, 5.93, 5.59, 5.49, 5.21, 4.8, 4.6, 4.3, 3.98, 3.13, 2.68, 1.79, 2.12, 1.26, -0.0, -0.0, -0.0, -0.0, -0.0, -0.0, -0.0, -0.0, -0.0, -0.0, -0.0, -0.0, -0.57, -0.71, -0.71, -0.57, 0.89, 0.45, 0.0, 1.34, 0.89, 0.0, 0.0, 0.0, 0.0, 0.0, 0.0, 2.23, 6.98, 7.45, 6.0, 6.06, 6.98, 5.95, 3.6, 3.07, 3.07, 3.07, 2.63, 3.07, 3.53, 3.53, 3.13, 2.24, 1.34, 0.89, 0.89, 0.89, 0.89, 0.89, 0.89, 0.0, 5.23, 5.23, 5.02, 5.02, 5.26, 5.26, 5.69, 5.69, 5.69, 5.69, 5.69, 5.69, 5.69, 5.95, 5.95, 6.34, 6.34, 6.34, 5.98, 5.98, 5.72, 6.0, 6.0, 6.0, 6.35, 6.35, 6.34, 6.32, 6.28, 5.69, 5.65, 5.65, 5.93, 5.93, 5.59, 5.49, 5.21, 4.55, 4.4, 4.11, 3.39, 3.13, 2.68, 2.24, 0.89, 0.8, -0.0, -0.0, -0.0, -0.0, -0.0, -0.57, -0.57, -0.0, -0.0, -0.0, -0.0, -0.57, -0.71, -0.71, -0.71, -0.71, -0.6, 0.89, 0.89, 0.89, 0.0, 0.0, -0.45, 0.0, 0.45, 0.0, 0.0, 0.85, 3.47, 4.47, 4.41, 5.43, 7.07, 6.52, 4.52, 3.53, 4.43, 4.02, 3.58, 3.58, 4.02, 3.58, 3.13, 2.68, 1.34, 0.89, 1.2, 1.2, 1.34, 0.89, 0.89, 0.89, 5.02, 5.02, 5.02, 5.02, 5.26, 5.26, 5.26, 5.69, 5.69, 5.69, 5.69, 5.69, 5.95, 5.95, 5.95, 5.95, 5.95, 5.7, 5.98, 5.72, 5.72, 5.72, 5.72, 5.72, 5.72, 6.06, 6.34, 6.04, 5.71, 5.69, 5.65, 5.65, 5.65, 5.65, 5.59, 5.35, 4.94, 4.93, 4.4, 4.11, 3.39, 3.07, 2.68, 1.79, 1.34, 0.32, -0.0, -0.0, -0.0, -0.0, -0.0, -0.57, -0.8, -0.0, -0.0, -0.0, -0.0, -0.57, -0.71, -0.71, -0.71, -0.71, -0.0, -0.0, 0.89, 0.89, 0.0, 0.89, -0.89, 0.45, 0.45, 0.6, 0.0, 0.0, 0.8, 1.6, 1.49, 2.24, 3.32, 4.8, 3.32, 3.58, 4.47, 5.81, 5.77, 4.47, 4.02, 4.02, 4.02, 3.13, 2.24, 1.2, 1.26, 1.26, 1.7, 1.7, 1.6, 1.6, 5.02, 5.02, 5.02, 5.26, 5.26, 5.26, 5.26, 5.26, 5.69, 5.69, 5.69, 5.69, 5.95, 5.95, 5.95, 5.95, 5.7, 5.7, 5.7, 5.72, 5.72, 5.46, 5.72, 5.72, 5.72, 5.72, 5.72, 5.72, 5.71, 5.69, 5.65, 5.37, 5.37, 5.65, 5.06, 5.35, 4.94, 4.65, 4.17, 3.88, 3.39, 3.07, 2.6, 1.79, 1.34, 0.63, -0.0, -0.0, -0.0, -0.0, -0.6, -0.6, -0.95, -0.0, -0.0, -0.63, -0.6, -0.8, -1.24, -1.24, -1.24, -1.24, -0.8, -0.0, -0.0, -0.0, -0.0, -0.0, -0.63, -0.45, 0.0, 0.8, 0.85, 0.0, 0.0, 0.0, 1.2, 1.7, 2.24, 2.68, 2.68, 3.53, 6.22, 7.12, 6.67, 5.81, 4.47, 4.47, 4.47, 3.58, 2.6, 1.26, 1.24, 1.86, 1.86, 2.12, 2.12, 2.12, 5.02, 5.02, 5.02, 5.26, 5.26, 5.26, 5.26, 5.26, 5.26, 5.69, 5.69, 5.95, 5.95, 5.95, 5.95, 5.7, 5.7, 5.7, 5.7, 5.72, 5.72, 5.08, 5.72, 5.72, 5.72, 5.72, 5.72, 5.72, 5.71, 5.69, 5.08, 5.37, 5.37, 5.37, 5.06, 5.35, 4.71, 4.65, 4.37, 3.88, 3.2, 2.91, 2.6, 2.12, 1.34, 0.45, -0.0, 0.45, 0.45, 0.45, -0.63, -0.63, -0.0, -0.0, -0.63, -0.63, -0.95, -1.26, -1.58, -1.24, -1.24, -1.49, -1.24, -1.26, -0.0, -0.0, -1.26, -1.58, -0.63, -0.45, 0.0, 0.57, 0.65, 0.65, 0.0, 0.45, 1.34, 2.68, 3.51, 3.82, 5.46, 7.46, 8.67, 8.24, 7.57, 6.26, 4.92, 4.47, 4.87, 3.97, 2.8, 1.24, 1.0, 1.24, 1.86, 1.86, 1.86, 1.86, 5.02, 5.02, 5.26, 5.26, 5.26, 5.26, 5.26, 5.26, 5.04, 5.45, 5.7, 5.95, 5.95, 5.7, 5.7, 5.7, 5.7, 5.7, 5.7, 5.32, 5.32, 5.08, 5.34, 5.34, 5.34, 5.72, 5.72, 5.72, 5.1, 5.1, 5.08, 5.37, 5.37, 5.37, 5.06, 5.06, 4.43, 4.37, 4.07, 3.43, 3.2, 2.91, 2.4, 1.86, 1.2, 0.45, 0.45, 0.0, 0.45, 0.45, -0.89, -0.89, 0.45, -0.89, -0.89, -0.63, -0.95, -1.26, -1.26, -1.24, -1.24, -1.49, -1.24, -1.26, -1.26, -0.0, -1.26, -0.63, -0.63, -0.45, 0.0, 0.57, 0.85, 1.2, 0.63, 0.63, 1.34, 3.13, 6.21, 6.64, 8.3, 10.19, 10.65, 9.89, 7.48, 6.26, 5.81, 4.43, 4.73, 3.82, 5.4, 0.65, 1.2, 1.24, 1.24, 1.26, 1.26, 1.26, 5.02, 5.02, 5.26, 5.26, 5.26, 5.26, 5.04, 5.04, 5.04, 5.04, 5.7, 5.7, 5.7, 5.7, 5.7, 5.7, 5.7, 5.7, 5.06, 5.32, 5.08, 5.08, 5.08, 5.34, 5.34, 5.34, 5.09, 5.36, 5.1, 5.1, 5.08, 5.08, 5.08, 5.08, 5.06, 4.75, 4.43, 4.37, 4.07, 3.43, 2.79, 2.68, 2.4, 1.86, 1.2, 0.89, 0.45, 0.0, 0.45, -0.45, -0.45, 0.45, 0.45, -0.89, -0.89, -0.89, -0.95, -1.2, -1.26, -1.24, -1.49, -1.49, -1.49, -1.24, -1.26, -1.26, -1.26, -0.63, -0.89, -0.45, 0.0, 0.57, 1.24, 1.26, 0.89, 0.6, 1.2, 3.13, 5.75, 5.46, 6.95, 9.92, 11.09, 9.89, 8.24, 6.66, 5.81, 5.64, 4.24, 4.8, 2.53, 0.0, 0.0, 0.0, 0.57, 0.6, 0.6, 0.6, 5.02, 5.02, 5.26, 5.26, 5.04, 5.04, 5.04, 5.04, 5.04, 5.29, 5.7, 5.7, 5.7, 5.7, 5.7, 5.7, 5.29, 5.29, 5.06, 5.32, 5.08, 5.08, 5.08, 5.34, 5.34, 5.34, 5.09, 5.09, 5.1, 5.1, 5.1, 5.08, 5.08, 5.08, 5.08, 4.75, 4.74, 4.11, 4.07, 3.43, 3.14, 2.5, 2.15, 1.58, 1.26, 0.63, 0.0, 0.0, 0.0, -0.63, -0.89, -0.45, -0.45, -0.89, -0.89, -0.89, -0.89, -1.2, -1.26, -1.58, -1.9, -1.9, -1.9, -1.24, -1.26, -1.26, -1.26, -1.79, -2.24, -1.2, 0.0, 0.0, 0.0, 0.45, 0.63, 0.6, 1.2, 2.6, 3.83, 3.07, 4.01, 8.24, 10.95, 9.86, 8.06, 6.22, 5.32, 4.52, 2.8, 0.63, 0.0, 0.0, 0.0, 0.0, 0.0, 0.0, 0.0, 0.0, 4.8, 4.8, 5.26, 5.04, 5.04, 5.04, 5.04, 5.04, 5.29, 5.29, 5.7, 5.7, 5.7, 5.7, 5.7, 5.29, 5.29, 5.06, 5.06, 5.32, 5.08, 5.08, 5.08, 5.34, 5.34, 5.09, 5.09, 5.09, 5.1, 5.1, 4.73, 4.75, 4.75, 4.75, 4.75, 4.75, 4.74, 4.12, 3.79, 3.16, 2.84, 2.21, 2.5, 1.58, 1.26, 0.6, 0.0, 0.0, 0.0, -0.63, -0.89, -0.89, -0.89, -0.89, -0.89, -0.89, -0.89, -1.34, -1.6, -1.58, -1.58, -1.9, -1.9, -1.9, -1.86, -2.4, -1.9, -2.4, -3.13, -1.79, -1.79, -0.95, -0.45, 0.0, -0.0, 0.63, 1.2, 1.6, 2.21, 2.41, 3.22, 6.0, 8.24, 6.9, 5.64, 4.47, 3.82, 2.68, 0.95, 0.63, 0.0, 0.0, 0.0, 0.0, 0.0, -0.63, -0.63, -0.63, 4.8, 4.8, 4.6, 5.04, 5.04, 5.04, 5.04, 5.04, 5.29, 5.29, 5.29, 5.7, 5.7, 5.7, 5.7, 5.29, 5.06, 5.06, 5.06, 5.32, 5.08, 4.66, 4.66, 5.34, 5.09, 5.09, 5.09, 5.09, 5.1, 4.71, 4.73, 4.47, 4.75, 4.75, 4.75, 4.47, 4.12, 4.12, 3.49, 3.48, 2.84, 2.53, 1.88, 1.9, 1.24, 0.57, 0.0, 0.0, -0.6, -0.95, -0.63, -0.89, -0.89, -1.34, -1.34, -0.89, -0.89, -1.34, -1.2, -1.26, -1.58, -1.9, -2.15, -2.4, -2.4, -2.12, -1.7, -1.7, -2.12, -1.79, -1.79, -1.79, -1.34, -0.45, 0.0, 0.0, -0.0, 0.4, 0.8, 1.58, 2.23, 3.74, 2.86, 2.4, 2.24, 3.07, 1.24, 0.54, 1.24, 2.4, 1.86, 0.57, 0.0, 0.0, 0.0, -0.6, -0.6, -0.6, 4.8, 4.8, 4.6, 5.04, 5.04, 5.04, 5.04, 5.29, 5.29, 5.29, 5.29, 5.7, 5.7, 5.7, 5.29, 5.29, 5.06, 5.06, 5.06, 5.32, 5.08, 4.66, 4.66, 4.69, 4.69, 5.09, 5.09, 5.09, 4.71, 4.71, 4.73, 4.47, 4.47, 4.47, 4.75, 4.47, 4.12, 4.12, 3.49, 3.15, 2.51, 2.23, 1.88, 1.2, 0.71, 0.0, 0.0, 0.0, -0.57, -0.6, -0.95, -0.95, -1.2, -1.79, -1.79, -1.34, -1.34, -1.34, -1.2, -1.26, -1.86, -1.9, -2.5, -2.15, -2.8, -1.7, -2.12, -2.12, -1.86, -1.7, -1.2, -0.8, -1.2, -1.34, -0.89, -0.45, 0.0, 0.45, -0.0, 0.95, 2.12, 1.86, 0.4, 0.45, 0.63, 1.2, 0.0, 0.0, 0.59, 2.07, 3.14, 2.21, 0.65, 0.0, 0.0, 0.0, 0.0, 0.0, 4.8, 4.6, 4.6, 5.04, 5.04, 5.04, 5.29, 5.29, 5.29, 5.29, 5.29, 5.7, 5.7, 5.29, 5.29, 5.29, 5.06, 5.06, 5.06, 5.32, 4.66, 4.66, 4.44, 4.69, 4.69, 4.69, 4.69, 4.69, 4.71, 4.71, 4.73, 4.47, 4.47, 4.47, 4.47, 4.1, 4.12, 3.84, 3.49, 2.86, 2.23, 2.23, 1.61, 1.2, 0.54, 0.0, 0.0, 0.0, -0.57, -0.8, -0.6, -0.6, -1.2, -1.79, -2.24, -1.79, -1.79, -1.34, -1.6, -1.26, -1.86, -1.9, -2.5, -2.5, -2.91, -2.91, -2.12, -1.7, -1.7, -1.2, -0.8, -0.63, -0.0, -0.6, -1.34, -0.89, -0.89, -0.45, -0.45, 0.0, 1.2, 0.63, -1.34, -1.2, 1.79, 0.6, 0.0, 0.0, 0.63, 1.32, 3.26, 3.15, 0.61, 0.0, -0.54, -0.71, -0.71, -0.71, 4.6, 4.6, 4.6, 4.6, 5.04, 5.04, 5.29, 5.29, 5.29, 5.29, 5.29, 5.7, 5.7, 5.29, 5.29, 5.06, 5.06, 5.06, 5.06, 4.66, 4.66, 4.66, 4.44, 4.69, 4.69, 4.69, 4.69, 4.69, 4.71, 4.71, 4.46, 4.73, 4.47, 4.47, 4.47, 4.1, 3.85, 3.84, 3.49, 2.86, 2.48, 1.8, 1.61, 1.16, 0.65, 0.0, 0.0, -0.54, -0.71, -0.57, -0.57, -0.8, -0.6, -1.79, -2.24, -2.24, -2.24, -2.24, -1.7, -1.6, -1.86, -2.15, -2.68, -3.07, -3.07, -3.39, -2.17, -2.24, -1.79, -1.34, -1.34, -0.45, 0.0, -0.0, -1.2, -0.89, -0.89, -0.89, -0.45, 0.0, 0.45, -0.45, -2.6, 0.95, 1.86, 1.24, 0.57, 0.89, 1.16, 0.64, 2.12, 2.9, 0.61, -0.65, -1.2, -1.24, -1.24, -1.24, 4.6, 4.6, 4.6, 4.6, 5.04, 5.29, 5.29, 5.29, 5.29, 5.29, 5.29, 5.29, 5.29, 5.29, 5.29, 5.06, 5.06, 5.06, 5.06, 4.66, 4.66, 4.66, 4.44, 4.69, 4.69, 4.69, 4.69, 4.69, 4.45, 4.71, 4.46, 4.73, 4.47, 4.47, 4.47, 4.1, 3.85, 3.47, 3.49, 2.86, 2.22, 1.8, 1.33, 1.16, 0.53, 0.0, 0.0, -0.65, -0.54, -0.71, -0.57, -0.57, -0.95, -1.34, -1.34, -2.24, -2.68, -2.68, -2.24, -2.12, -2.12, -2.4, -2.91, -3.39, -3.82, -3.39, -3.53, -3.58, -2.24, -1.79, -1.34, -1.2, -0.63, -0.45, -0.45, -0.45, -0.45, -0.45, 0.0, 0.0, 0.0, -1.7, -1.86, 0.6, 1.58, 1.24, -0.0, 0.54, 0.89, 1.16, 1.36, 0.57, -0.54, -1.9, -1.9, -1.9, -1.9, -1.9, 4.6, 4.6, 4.6, 4.6, 5.04, 5.29, 5.29, 5.29, 5.29, 5.29, 5.29, 5.29, 5.29, 5.29, 5.29, 5.06, 5.06, 5.06, 4.63, 4.66, 4.66, 4.66, 4.66, 4.69, 4.69, 4.69, 4.69, 4.69, 4.45, 4.71, 4.46, 4.73, 4.73, 4.47, 4.47, 4.08, 4.1, 3.72, 3.22, 2.84, 2.22, 1.8, 1.13, 0.51, 0.61, 0.0, 0.0, -0.65, -0.65, -0.54, -0.71, -0.57, -0.95, -0.63, -0.89, -1.34, -2.24, -2.68, -2.68, -2.24, -2.17, -2.17, -2.63, -3.53, -3.98, -3.98, -3.98, -4.47, -2.68, -2.68, -1.79, -1.7, -1.6, -1.2, -0.89, -0.89, -0.45, -0.63, 0.45, 0.45, -0.0, -3.07, -2.4, -0.0, 1.26, 1.24, 0.54, -0.0, -0.0, 0.63, 0.61, 0.0, -1.79, -1.86, -1.9, -2.15, -2.15, -2.15, 4.6, 4.6, 4.6, 4.6, 5.04, 5.29, 5.29, 5.29, 5.29, 5.29, 5.29, 5.29, 5.29, 5.29, 5.06, 5.06, 5.06, 5.06, 4.63, 4.66, 4.66, 4.66, 4.44, 4.69, 4.69, 4.69, 4.69, 4.69, 4.45, 4.71, 4.46, 4.46, 4.73, 4.73, 4.08, 4.08, 4.1, 3.45, 3.22, 2.84, 2.2, 1.76, 1.27, 0.59, 0.51, 0.0, 0.0, 0.0, 0.0, 0.0, 0.0, -0.57, -0.6, 0.0, 0.89, -0.89, -1.34, -2.24, -2.68, -2.68, -2.68, -2.24, -2.68, -3.13, -3.58, -4.02, -3.98, -4.47, -4.92, -3.13, -2.68, -2.17, -1.7, -1.34, -0.89, -0.45, 0.45, 0.0, 0.0, 0.0, -0.63, -4.43, -3.53, -1.26, 0.6, 1.26, 0.54, -0.0, -0.0, -0.0, -0.4, -1.2, -1.34, -1.2, -1.58, -1.9, -1.9, -1.9, 4.6, 4.6, 4.6, 4.6, 5.29, 5.29, 5.29, 5.29, 5.29, 5.29, 5.29, 5.29, 5.29, 5.29, 5.06, 5.06, 5.06, 5.06, 4.63, 4.66, 4.66, 4.66, 4.44, 4.69, 4.69, 4.69, 4.69, 4.69, 4.69, 4.71, 4.71, 4.46, 4.46, 4.73, 4.08, 4.08, 3.84, 3.45, 3.47, 2.61, 2.2, 1.76, 1.11, 1.13, 0.59, 0.0, 0.0, 0.0, 0.0, 0.0, 0.0, -0.8, -0.6, -0.95, 0.0, -0.89, -0.89, -1.79, -2.24, -2.68, -2.68, -2.68, -2.24, -2.68, -3.13, -3.58, -4.02, -4.47, -4.92, -3.13, -2.68, -2.24, -1.79, -1.34, -1.34, -0.63, -0.45, 0.45, 0.0, 0.0, -2.12, -4.02, -4.02, -2.24, -0.0, 1.2, 1.24, -0.0, -0.0, -0.54, -1.34, -1.49, -0.8, 0.0, -0.99, -1.24, -1.24, -1.24, 4.6, 4.6, 4.6, 4.6, 5.04, 5.29, 5.29, 5.29, 5.29, 5.29, 5.29, 5.29, 5.29, 5.29, 5.06, 5.06, 5.06, 4.63, 4.63, 4.66, 4.66, 4.66, 4.66, 4.44, 4.69, 4.69, 4.69, 4.69, 4.69, 4.45, 4.71, 4.46, 4.46, 4.46, 4.08, 4.08, 3.84, 3.45, 2.8, 2.82, 2.4, 1.57, 1.23, 1.11, 0.59, 0.0, 0.0, 0.0, 0.0, 0.0, 0.0, -0.57, -0.6, -0.6, -0.95, -0.63, -0.89, -1.34, -2.12, -2.17, -2.6, -2.68, -2.6, -2.17, -2.17, -2.6, -3.07, -3.58, -4.02, -3.13, -2.68, -2.17, -1.79, -1.79, -1.34, -0.89, -0.45, 0.45, 0.0, 0.0, -0.63, -3.13, -4.47, -2.68, 0.0, 0.89, 0.95, 0.54, -0.0, -0.0, -0.95, -1.26, -0.54, 0.0, -0.57, -0.71, -0.71, -0.71, 4.6, 4.6, 4.6, 4.6, 4.6, 5.29, 5.29, 5.29, 5.29, 5.29, 5.29, 5.29, 5.29, 5.29, 5.06, 5.06, 4.63, 4.63, 4.63, 4.66, 4.66, 4.66, 4.66, 4.44, 4.44, 4.69, 4.69, 4.69, 4.69, 4.45, 4.71, 4.71, 4.46, 4.46, 4.05, 4.08, 4.08, 3.68, 2.8, 2.82, 2.18, 1.73, 1.23, 1.11, 0.57, 0.59, 0.0, 0.0, 0.0, 0.0, 0.0, -0.57, -0.8, -0.6, -0.6, -0.95, -0.63, -1.34, -1.6, -1.7, -2.12, -2.6, -2.6, -2.6, -2.4, -1.86, -1.86, -2.12, -2.68, -3.13, -3.58, -2.6, -2.17, -1.79, -1.79, -1.34, -0.89, -0.45, -0.89, 0.45, -0.0, -2.17, -4.02, -3.07, -0.63, 0.89, 0.63, -0.0, -0.0, -0.0, -0.4, -1.2, -1.24, -0.57, 0.0, 0.0, 0.0, 0.0, 4.6, 4.6, 4.6, 4.6, 4.6, 5.29, 5.29, 5.29, 5.29, 5.29, 5.29, 5.29, 5.29, 5.29, 5.06, 5.06, 4.63, 4.63, 4.63, 4.42, 4.66, 4.66, 4.66, 4.66, 4.44, 4.44, 4.69, 4.69, 4.69, 4.69, 4.45, 4.71, 4.46, 4.05, 4.05, 3.83, 4.08, 3.42, 3.0, 2.32, 2.18, 1.73, 1.57, 1.23, 1.11, 0.57, 0.0, 0.0, 0.0, 0.0, 0.0, 0.0, -0.57, -0.57, -0.8, -0.6, -0.63, -0.89, -1.34, -1.6, -1.26, -1.86, -2.4, -2.4, -2.8, -2.23, -1.26, -1.26, -2.12, -2.68, -3.58, -2.17, -1.79, -3.13, -2.24, -2.24, -1.34, 0.45, 0.45, 0.0, -0.0, -1.6, -3.58, -3.32, -0.95, 0.0, 0.45, -0.0, -0.0, -0.0, -0.0, -0.89, -1.26, -0.57, 0.0, 0.71, 0.71, 0.71, 4.6, 4.6, 4.6, 4.6, 4.6, 5.04, 5.29, 5.29, 5.29, 5.29, 5.29, 5.29, 5.29, 5.29, 5.06, 4.63, 4.63, 4.63, 4.63, 4.63, 4.42, 4.66, 4.66, 4.66, 4.66, 4.44, 4.44, 4.69, 4.69, 4.69, 4.45, 4.71, 4.46, 4.05, 4.05, 3.83, 4.08, 3.42, 3.45, 2.32, 2.36, 1.7, 1.73, 1.57, 1.23, 1.11, 0.57, 0.0, 0.0, 0.0, 0.0, 0.0, 0.0, 0.0, -0.57, -0.6, -0.95, -0.63, -0.89, -1.34, -1.2, -1.26, -1.86, -2.4, -2.91, -2.6, -1.7, -1.2, -1.2, -2.24, -2.68, -3.13, -3.13, -4.02, -2.17, -2.17, -1.7, -0.63, -0.0, 0.45, 0.0, -0.0, -2.24, -2.91, -1.86, 0.0, 0.45, 0.0, 0.0, 0.0, 0.45, 0.0, 0.0, 0.0, 0.0, 1.24, 1.24, 1.24, 4.6, 4.6, 4.6, 4.6, 4.6, 5.04, 5.29, 5.29, 5.29, 5.29, 5.29, 5.29, 5.29, 5.29, 5.06, 4.63, 4.63, 4.63, 4.63, 4.63, 4.42, 4.66, 4.66, 4.66, 4.66, 4.44, 4.44, 4.69, 4.69, 4.69, 4.45, 4.71, 4.46, 4.05, 4.05, 3.83, 4.08, 3.42, 3.45, 2.32, 2.36, 1.7, 1.73, 1.57, 1.23, 1.11, 0.57, 0.0, 0.0, 0.0, 0.0, 0.0, 0.0, 0.0, -0.57, -0.6, -0.95, -0.63, -0.89, -1.34, -1.2, -1.26, -1.86, -2.4, -2.91, -2.6, -1.7, -1.2, -1.2, -2.24, -2.68, -3.13, -3.13, -4.02, -2.17, -2.17, -1.2, -0.63, -0.0, 0.45, 0.0, 0.45, 0.0, -1.2, -1.86, -0.6, 0.0, 0.45, 0.89, 1.34, 2.24, 2.68, 2.17, 1.7, 1.58, 1.9, 1.9, 1.9]}, {"header": {"dx": 0.06612293990616946, "dy": 0.0552356325346848, "nx": 98, "ny": 59, "la1": 35.046912555036876, "la2": 31.78801023549047, "lo1": -121.43107172385933, "lo2": -114.95102361305473, "refTime": "2026041811", "parameterCategory": 1, "parameterNumber": 3}, "data": [-11.62, -11.62, -11.07, -11.07, -10.41, -9.76, -8.55, -7.76, -6.56, -5.6, -4.4, -2.63, -0.89, -0.63, 0.0, -0.95, -2.21, -2.51, -1.66, -1.66, -0.79, -0.0, -0.0, -0.0, -0.0, -0.0, -0.0, 0.89, 1.34, 1.34, 0.8, 0.0, 0.0, -0.63, -1.2, -0.95, -0.6, 0.0, 0.0, 0.89, 1.2, 0.57, 0.0, -0.87, -3.2, -4.5, -6.09, -7.63, -7.44, -1.84, 2.12, 2.91, 2.21, 2.53, 2.84, 3.16, 3.48, 2.98, 2.98, 2.4, 0.65, 0.0, 0.0, 0.89, 1.26, 1.49, 1.6, 1.41, 1.47, 2.26, 1.49, 1.45, 0.7, 0.0, 0.0, 0.0, 0.66, 0.0, 0.0, -0.71, 0.0, 0.0, 0.45, 0.45, 0.63, 0.0, 0.0, 0.0, -0.57, -1.88, -3.14, -4.52, -5.31, -5.31, -5.31, -5.31, -4.73, -4.73, -11.62, -11.44, -11.07, -11.07, -10.79, -9.86, -9.21, -8.43, -7.23, -6.28, -5.08, -2.6, -1.34, -0.45, 0.0, 0.0, -1.26, -1.88, -2.07, -2.0, -1.83, -0.79, -0.0, -0.0, -0.0, -0.0, 0.32, 0.89, 1.2, 0.95, -0.0, -0.0, -0.0, 0.0, 0.0, 0.0, 0.0, 0.0, 0.0, 0.0, 0.0, -0.65, -1.83, -5.21, -7.59, -8.85, -9.4, -8.53, -1.84, 1.86, 3.32, 2.53, 2.84, 2.79, 2.84, 3.16, 3.79, 4.01, 3.11, 3.11, 2.29, 0.7, 0.8, 1.26, 1.58, 1.49, 1.6, 1.49, 1.55, 2.2, 2.26, 1.52, 0.73, 0.0, 0.0, 0.0, 0.66, 0.0, 0.0, -0.71, 0.0, 0.0, 0.45, 0.45, 0.63, 0.0, 0.0, 0.0, -0.57, -1.88, -3.14, -4.52, -5.31, -5.31, -5.31, -5.31, -4.73, -4.73, -11.07, -11.07, -11.07, -11.07, -10.7, -10.41, -9.76, -8.93, -7.9, -6.95, -5.75, -4.4, -2.0, -1.2, -0.63, 0.0, -0.63, -1.7, -2.15, -2.41, -2.73, -2.76, -1.49, -0.76, -0.0, 0.63, 0.63, 1.34, 1.26, -0.0, -0.65, -0.54, -0.0, -0.0, 0.32, 0.0, 0.0, 0.0, -0.59, -0.53, -1.61, -3.38, -6.88, -8.53, -9.23, -9.23, -7.59, -2.07, 1.9, 3.45, 3.49, 2.79, 2.51, 3.16, 2.84, 3.48, 2.98, 3.11, 3.33, 3.0, 2.35, 2.11, 1.6, 2.21, 2.21, 2.41, 2.3, 2.2, 2.4, 3.11, 3.2, 2.26, 0.82, 0.0, -0.54, 0.0, 0.0, 0.71, 0.0, -1.2, -0.89, 0.0, 0.0, 0.0, 0.0, 0.0, 0.0, 0.0, -1.2, -2.79, -5.06, -5.69, -5.64, -4.87, -4.92, -4.92, -4.43, -4.43, -11.07, -11.07, -11.07, -11.07, -10.7, -10.41, -9.86, -9.21, -8.55, -7.61, -6.41, -5.6, -2.8, -1.86, -0.95, -0.6, -0.8, -1.26, -1.34, -1.84, -2.0, -1.66, -2.76, -2.0, -1.33, -0.0, 0.6, 1.2, 1.6, -0.0, -1.16, -1.84, -1.16, -0.8, 0.0, 0.0, 0.0, -0.7, -1.94, -2.88, -5.3, -7.59, -7.52, -6.88, -5.21, -3.79, -0.66, 1.33, 3.79, 3.72, 2.73, 3.07, 2.79, 3.07, 3.48, 3.79, 3.22, 3.11, 3.0, 2.35, 2.35, 2.11, 2.79, 3.22, 3.84, 3.79, 3.72, 3.38, 4.36, 5.0, 4.46, 3.91, 2.26, 0.66, 0.0, -1.24, -1.33, -1.45, 0.0, -1.2, -1.34, -0.45, 0.0, -0.63, -0.0, 0.0, 0.0, -0.57, -1.84, -4.56, -6.01, -5.69, -4.93, -4.43, -4.47, -4.02, -4.02, -3.98, -11.34, -11.07, -11.07, -11.07, -10.7, -10.79, -10.41, -9.76, -8.93, -7.9, -7.07, -6.28, -3.32, -2.4, -1.86, -1.86, -1.24, -1.24, -1.26, -1.9, -1.66, -0.88, -0.88, -0.88, -0.63, -0.7, -0.0, -0.0, 0.63, -0.0, -1.24, -2.84, -3.48, -3.07, -2.68, -2.8, -2.53, -2.99, -5.59, -6.95, -7.64, -5.94, -3.64, -1.27, 0.0, 0.0, 1.41, 3.11, 3.11, 2.88, 2.2, 2.73, 2.79, 3.07, 3.79, 3.64, 2.88, 2.88, 3.0, 3.09, 2.35, 2.2, 2.84, 4.09, 4.81, 4.74, 4.01, 4.11, 4.74, 5.69, 4.71, 3.8, 3.6, 3.0, 1.33, -0.65, -1.88, -2.0, -0.67, -1.0, -0.95, -0.8, -0.89, -0.95, -0.99, -1.7, -1.86, -2.51, -4.65, -6.32, -5.43, -4.46, -4.0, -3.82, -3.58, -3.53, -3.58, -3.97, -11.34, -11.34, -11.07, -11.07, -10.7, -10.79, -10.41, -9.86, -9.21, -8.55, -7.35, -6.41, -3.07, -2.4, -2.23, -2.4, -1.86, -1.9, -2.15, -2.63, -2.0, -2.29, -0.88, -0.88, -0.79, -1.49, -1.6, -1.24, -1.26, 0.0, -0.45, -1.86, -3.45, -5.16, -5.81, -6.11, -5.34, -5.43, -6.24, -6.7, -5.09, -2.53, -1.16, 0.0, 0.0, 0.74, 2.35, 2.29, 2.29, 1.55, 1.27, 2.07, 2.79, 2.79, 3.07, 2.29, 2.11, 2.4, 2.2, 2.31, 2.26, 2.3, 3.49, 4.46, 4.46, 4.74, 4.36, 3.72, 3.48, 4.01, 3.2, 3.09, 3.91, 3.6, 2.82, 0.76, -0.7, -1.16, 0.0, 0.0, -0.63, -1.79, -2.24, -2.4, -2.91, -3.58, -4.73, -6.44, -6.7, -6.08, -4.46, -4.46, -4.09, -2.91, -2.6, -3.07, -3.13, -3.53, -10.96, -10.96, -10.96, -10.7, -10.7, -10.79, -10.41, -9.86, -9.76, -8.93, -7.9, -6.95, -3.45, -2.15, -2.53, -2.12, -2.6, -3.22, -3.14, -3.39, -1.9, -1.27, -2.29, -3.11, -2.3, -2.68, -3.22, -3.22, -3.2, -2.23, -0.63, 0.0, -1.79, -3.13, -4.92, -5.77, -6.07, -5.24, -4.47, -2.5, -0.95, -1.79, -2.6, -3.22, -1.03, 1.27, 3.64, 3.79, 2.8, 2.26, 1.23, 1.33, 2.3, 2.3, 2.3, 2.0, 2.2, 2.0, 1.47, 2.26, 2.35, 2.2, 2.84, 2.84, 3.83, 3.79, 3.64, 2.4, 1.33, 1.41, 0.76, 0.76, 1.41, 0.71, 0.76, 0.0, 0.0, 0.7, 1.84, 1.35, -0.57, -3.07, -4.02, -4.02, -4.92, -7.12, -8.63, -7.98, -6.64, -5.6, -6.13, -6.64, -4.24, -2.24, -1.2, -2.24, -3.13, -3.53, -10.96, -10.96, -10.96, -10.96, -10.96, -10.79, -10.41, -9.86, -9.5, -9.21, -8.43, -7.61, -3.84, -2.86, -3.16, -1.86, -2.8, -3.16, -2.79, -2.07, 0.0, 1.2, 0.0, -2.53, -4.12, -4.98, -5.6, -6.0, -4.11, -2.15, -2.21, -1.7, -2.24, -3.04, -4.41, -5.77, -6.22, -5.34, -2.41, 0.0, 0.89, 0.0, -2.12, -1.58, 0.0, 2.4, 2.84, 3.0, 2.9, 1.96, 0.61, 1.84, 2.3, 2.73, 2.2, 2.53, 2.2, 2.4, 2.29, 1.52, 1.52, 1.41, 1.2, 1.86, 2.6, 2.5, 2.29, 0.7, 0.0, 0.0, 0.0, 0.0, -0.78, -1.49, -1.49, -0.67, 0.72, 2.11, 2.2, 0.76, 0.0, -3.72, -5.32, -6.26, -8.02, -8.71, -8.48, -7.71, -6.28, -5.44, -6.36, -5.78, -3.58, -1.34, 0.0, -0.95, -2.4, -3.51, -10.96, -10.96, -10.96, -10.96, -10.79, -10.79, -10.41, -10.41, -9.86, -9.76, -9.1, -8.68, -6.8, -6.16, -4.4, -3.2, -4.22, -3.49, -2.15, -1.4, 0.0, 0.7, 0.7, 0.0, -2.91, -4.15, -4.22, -5.24, -4.47, -3.79, -4.15, -5.73, -5.81, -5.29, -4.73, -4.41, -4.82, -3.47, -1.6, 0.0, 0.0, 0.0, 0.0, 0.0, 1.34, 1.7, 1.0, 0.87, 2.29, 2.11, 3.45, 2.84, 3.07, 2.98, 2.98, 3.22, 3.11, 3.0, 2.35, 1.45, 1.63, 0.73, 0.57, 1.7, 2.12, 2.53, 1.47, 0.76, 0.0, 0.0, 0.0, -0.67, -1.55, -1.36, -1.32, -0.7, 0.0, 0.76, 0.76, 0.0, 0.0, -2.0, -4.73, -6.11, -6.85, -7.33, -6.85, -4.73, -3.97, -3.58, -4.02, -4.02, -3.07, -1.34, 0.0, -0.54, -1.58, -2.91, -10.96, -10.96, -10.96, -10.96, -10.79, -10.79, -10.41, -10.41, -9.86, -9.76, -9.38, -9.48, -8.27, -8.4, -7.21, -7.21, -7.35, -8.14, -7.31, -6.36, -4.38, -3.2, -1.4, 0.0, -0.89, -1.9, -1.88, -2.41, -3.91, -5.51, -6.71, -6.26, -4.47, -4.47, -4.47, -3.95, -3.04, -1.34, -0.0, 0.0, 0.0, 0.0, -0.0, -0.0, 0.45, 0.45, 0.0, 0.0, 0.65, 2.15, 2.84, 3.49, 3.48, 3.35, 3.72, 3.64, 3.0, 2.26, 1.55, 0.79, 0.74, 0.81, 2.48, 2.12, 2.23, 2.21, 2.11, 1.3, 0.65, 0.0, -0.65, -1.41, -1.36, -1.4, -0.74, -0.67, -1.55, -2.11, -1.93, -1.32, -0.69, 0.0, -2.53, -3.82, -3.82, -3.07, -3.07, -2.4, -1.34, -1.34, -2.6, -3.53, -3.07, -2.24, -1.24, -0.65, -1.24, -2.91, -10.96, -10.96, -10.96, -10.79, -10.79, -10.79, -10.41, -10.41, -10.41, -10.13, -9.76, -9.76, -8.65, -8.0, -6.44, -6.94, -7.89, -9.27, -10.04, -10.67, -9.39, -4.92, -2.6, -0.95, -0.0, -0.0, -0.0, -0.0, -2.23, -3.95, -3.51, -1.7, -0.89, -1.79, -3.13, -3.58, -2.24, -0.63, -0.6, -0.63, -0.89, -0.45, 0.0, 0.0, 1.79, 1.34, 1.34, 0.6, 0.8, 1.9, 2.5, 2.21, 2.15, 2.3, 2.4, 3.11, 2.26, 1.49, 0.0, 0.0, 0.0, 1.49, 2.53, 3.2, 3.74, 3.49, 3.22, 3.11, 1.49, 0.0, -0.79, -2.2, -2.06, -1.36, -1.36, -1.36, -2.04, -2.98, -3.9, -3.91, -2.69, -1.4, 0.0, -2.21, -2.15, -1.2, -0.61, -0.61, 0.0, 0.0, -1.7, -3.13, -3.13, -3.07, -2.5, -1.16, -1.24, -2.0, -10.96, -10.96, -10.96, -10.96, -10.41, -10.41, -10.41, -10.41, -10.41, -9.86, -9.76, -9.76, -8.94, -8.38, -6.92, -6.28, -5.65, -6.79, -7.61, -8.0, -5.81, -2.8, -1.0, -0.0, -0.0, 1.27, 1.13, 1.88, -0.0, -1.33, -1.6, -0.0, 1.2, 1.2, -0.0, -1.49, -1.88, -0.65, -0.71, -0.0, -0.0, 0.45, 1.34, 3.13, 3.82, 2.6, 2.12, 1.34, 0.95, 0.6, 0.0, 0.0, 0.0, 0.0, 0.66, 0.76, 0.79, 0.0, -0.76, -0.78, 0.61, 2.84, 4.15, 3.13, 3.04, 3.16, 3.9, 3.79, 2.2, 0.0, -0.7, -2.04, -2.04, -1.55, -1.35, -1.63, -2.29, -2.98, -5.0, -4.87, -4.56, -2.2, -0.69, 0.0, -0.53, -0.53, -0.59, -0.66, -0.66, -0.66, -1.16, -2.4, -3.13, -3.07, -3.14, -2.07, -0.65, -1.26, -10.96, -10.96, -10.96, -10.96, -10.41, -10.41, -10.41, -10.41, -10.41, -10.04, -9.86, -9.5, -9.3, -9.3, -8.15, -6.64, -5.38, -5.1, -5.1, -4.73, -3.22, -1.13, -0.4, -0.0, -0.0, -0.0, 1.14, 1.76, 1.18, -0.0, -0.7, -0.0, 1.41, 1.49, 0.61, -0.0, -0.59, -0.0, -0.0, 0.54, 1.26, 1.86, 2.6, 2.17, 2.54, 2.54, 1.6, 0.0, -0.63, -1.58, -2.17, -2.6, -3.32, -4.46, -4.65, -4.11, -2.2, 0.0, -0.72, 0.0, 1.34, 3.95, 4.02, 2.24, 1.34, 1.26, 2.15, 3.11, 2.29, 0.79, 0.0, -0.7, -1.41, -1.55, -1.41, -2.4, -2.26, -3.33, -4.29, -4.02, -3.79, -2.51, -3.55, -3.09, 0.0, -0.73, -1.35, -2.0, -1.41, -1.35, -1.47, -1.2, -2.4, -3.32, -3.49, -2.73, -1.16, -0.57, -10.96, -10.96, -10.96, -10.96, -10.41, -10.41, -10.41, -10.41, -10.41, -10.04, -9.86, -9.86, -9.86, -9.02, -8.78, -7.59, -6.35, -5.72, -5.09, -4.44, -4.2, -2.69, -1.61, -1.08, -1.2, -0.57, -0.0, 0.57, 0.56, -0.0, -0.0, -0.0, 0.96, -0.0, -0.0, -0.0, -0.0, -0.0, 0.65, 1.2, 1.9, 1.9, 1.86, 3.82, 3.82, 3.2, 0.95, 0.0, -0.89, -2.12, -3.47, -5.73, -6.88, -6.36, -5.7, -4.87, -3.9, -2.48, -0.98, 0.45, 1.9, 2.4, 2.24, 0.89, -0.89, -0.89, 0.0, 0.0, 1.27, 1.24, 1.24, 0.0, -1.24, -1.84, -3.0, -3.91, -3.2, -3.11, -3.11, -3.07, -2.21, -3.84, -5.0, -4.87, -2.8, -2.35, -2.2, -2.07, -1.84, -1.27, -0.72, -1.13, -1.88, -2.53, -3.48, -2.73, -1.84, -0.54, -10.96, -10.96, -10.96, -10.96, -10.41, -10.41, -10.68, -10.68, -10.41, -10.04, -9.86, -9.86, -9.59, -9.37, -9.02, -8.78, -7.3, -6.69, -5.72, -5.32, -5.29, -4.12, -3.45, -2.86, -2.29, -2.23, -1.2, -0.0, -0.0, -0.0, 0.54, 0.55, -0.0, -0.0, -0.0, -0.0, -0.0, -0.0, 1.13, 1.49, 1.9, 3.35, 2.8, 2.4, 2.68, 2.68, 2.24, 1.79, 0.0, -0.89, -2.6, -3.2, -2.23, 0.0, 0.0, -1.2, -3.04, -4.09, -1.4, 0.89, 0.6, 0.95, 0.89, 0.0, -1.79, -3.58, -4.02, -2.97, -1.6, 0.63, 1.7, 1.34, 0.0, -0.54, -2.07, -3.11, -3.38, -3.64, -2.98, -1.4, -1.24, -1.74, -2.66, -2.8, -2.73, -4.65, -3.64, -2.07, -1.4, -1.33, -1.35, -1.3, -2.0, -2.07, -2.3, -1.84, -1.2, -1.2, -10.96, -10.96, -10.96, -10.96, -10.41, -10.68, -10.68, -10.68, -10.68, -10.41, -10.41, -9.86, -9.59, -9.37, -9.02, -8.5, -7.9, -7.6, -6.34, -5.7, -5.26, -4.57, -4.08, -3.42, -2.83, -2.23, -1.65, -1.08, 0.0, 0.0, -0.0, -0.0, 0.61, -0.0, 1.2, 1.24, 1.24, 1.9, 3.16, 3.48, 2.23, 1.7, 2.68, 2.68, 2.68, 2.24, 2.24, 1.79, 1.79, 0.0, 0.0, 0.0, 0.8, 1.6, 1.2, 0.0, -1.58, -1.9, 0.0, 0.63, 0.45, 0.0, 0.0, 0.0, -0.63, -3.13, -4.92, -3.58, -0.89, 0.89, 1.34, 1.34, 1.6, 0.57, 0.0, -1.16, -2.07, -2.41, -1.2, 0.0, 0.54, 0.0, 0.0, -0.76, -0.7, -1.4, -2.51, -1.84, -1.4, -1.16, -1.47, -2.73, -2.15, -1.8, -2.04, -1.8, -1.84, -1.84, -11.22, -10.96, -10.96, -10.96, -10.68, -10.68, -10.68, -10.3, -10.3, -10.04, -10.41, -10.23, -9.59, -9.37, -9.02, -8.5, -8.22, -7.32, -6.98, -6.08, -5.69, -4.57, -4.08, -3.42, -2.25, -1.63, -1.73, -1.12, -1.16, -1.12, -0.55, 0.0, 0.0, 0.89, 1.7, 2.5, 2.84, 3.93, 2.98, 4.4, 3.72, 1.6, 2.8, 1.34, 2.68, 2.24, 2.24, 1.79, 1.79, 1.58, 1.58, 1.9, 1.9, 1.9, 0.0, 0.0, 0.0, 1.4, 2.8, 2.68, 1.58, 1.58, 1.58, 2.24, 1.58, 0.0, -2.12, -2.68, -1.34, 0.0, 0.0, -0.0, 0.0, 0.6, 0.0, -0.57, -1.26, -0.95, 0.0, 0.8, 1.2, 0.59, 0.0, 0.0, -0.78, -0.61, -1.24, -0.54, -1.4, -2.11, -2.9, -2.0, -2.53, -2.79, -3.0, -2.2, -2.23, -2.23, -11.22, -11.22, -11.22, -10.83, -10.68, -10.68, -10.68, -10.3, -10.3, -10.04, -10.41, -10.23, -9.94, -9.37, -9.02, -7.9, -8.22, -7.93, -6.98, -6.08, -5.02, -5.23, -4.08, -2.77, -1.15, -1.14, -1.69, -2.35, -2.28, -2.19, -2.4, -1.7, 0.0, 0.54, 2.17, 2.4, 2.53, 2.68, 1.74, 1.58, 1.6, 1.6, 1.2, 1.34, 2.24, 2.24, 1.79, 1.79, 1.26, 1.58, 1.9, 1.9, 1.9, 1.58, 0.0, 0.0, 1.13, 2.53, 2.8, 1.9, 1.2, 0.0, 0.0, 2.24, 2.8, 0.89, 0.0, -2.54, -3.04, -1.79, -1.58, -1.9, -1.6, -0.89, 0.0, -0.6, -1.58, -1.2, -0.63, 0.0, 0.0, -0.59, -1.47, -1.93, -1.41, -1.4, -1.88, -0.71, -2.07, -3.22, -2.8, -2.2, -2.51, -3.79, -3.9, -2.73, -3.07, -3.07, -11.22, -11.22, -11.22, -10.83, -10.68, -10.68, -10.68, -10.3, -10.3, -10.04, -10.04, -10.23, -9.86, -9.59, -9.3, -7.97, -8.19, -7.9, -6.98, -5.7, -5.23, -5.17, -5.23, -3.7, -2.31, -2.28, -2.83, -2.99, -2.9, -3.6, -2.75, -1.67, -0.55, 0.0, 0.8, 2.6, 2.84, 2.22, 1.2, 1.58, 1.49, 1.6, 1.34, 2.24, 2.24, 1.79, 1.79, 1.79, 1.79, 2.24, 2.4, 2.4, 2.4, 2.4, 2.8, 1.4, 1.6, 1.6, 1.6, 0.0, 0.0, 0.0, 0.0, 0.89, 1.6, 0.95, 0.0, -3.22, -3.49, -1.58, -1.34, -1.2, -1.24, -0.54, -0.6, -0.63, -2.53, -3.45, -2.68, -2.4, -2.79, -3.64, -3.79, -4.29, -4.36, -4.43, -6.07, -5.72, -4.65, -4.75, -3.43, -3.64, -3.64, -4.75, -4.43, -3.72, -3.48, -3.48, -11.22, -11.22, -10.83, -10.83, -10.68, -10.68, -10.3, -10.3, -10.3, -10.3, -9.86, -9.86, -9.86, -9.59, -9.59, -8.45, -8.19, -8.15, -6.68, -5.49, -5.41, -6.94, -7.33, -6.42, -6.53, -5.38, -4.71, -5.1, -4.47, -2.84, -2.23, -1.33, -1.2, -0.54, 0.0, 1.34, 2.17, 2.5, 2.21, 2.5, 2.91, 3.07, 2.68, 2.68, 2.24, 1.34, 1.79, 1.34, 1.79, 2.24, 2.24, 2.68, 2.68, 2.4, 1.2, 1.26, 1.27, 0.71, 0.0, 0.0, 0.0, 0.0, 0.0, 1.79, 1.2, 0.63, 0.0, -1.0, -0.7, 0.7, 0.79, 0.79, 0.79, 0.0, -2.4, -1.88, -3.13, -5.34, -4.92, -4.66, -4.84, -4.74, -4.74, -4.46, -3.48, -3.14, -3.07, -2.5, -4.75, -4.09, -5.05, -5.43, -5.37, -5.69, -5.69, -5.43, -5.09, -5.09, -10.83, -10.83, -10.83, -10.83, -10.68, -10.68, -10.3, -10.3, -10.3, -10.13, -9.86, -9.86, -9.86, -9.86, -9.59, -9.37, -8.45, -8.15, -8.08, -7.64, -7.52, -8.24, -8.24, -8.24, -8.24, -7.61, -5.72, -4.47, -3.48, -1.9, -1.26, -0.6, -0.95, -0.6, 0.0, 1.26, 1.7, 2.24, 2.68, 3.07, 3.53, 3.58, 3.58, 3.13, 2.68, 1.34, 1.34, 1.34, 1.79, 1.79, 2.24, 2.24, 2.24, 2.68, 2.4, 1.26, 1.24, 1.49, 0.0, 0.0, 0.0, 0.0, 0.0, -0.0, -0.0, -0.0, -0.0, 0.0, 1.58, 4.19, 4.65, 4.5, 2.34, 0.0, -3.78, -6.32, -4.43, -6.07, -7.21, -5.81, -4.93, -4.46, -2.79, -2.51, -1.2, -0.6, 0.0, -0.4, -1.16, -2.51, -5.09, -6.7, -6.06, -5.31, -6.64, -6.64, -5.36, -5.36, -11.08, -10.83, -10.83, -10.68, -10.68, -10.3, -10.3, -10.3, -10.3, -10.13, -9.86, -9.86, -9.86, -9.86, -9.59, -9.37, -8.78, -8.78, -9.08, -9.13, -8.24, -7.61, -7.6, -7.32, -7.61, -6.33, -5.29, -3.6, -2.4, -1.84, -1.2, -0.57, -0.57, 0.0, 0.0, 1.2, 1.9, 2.23, 2.6, 3.13, 3.58, 3.58, 3.58, 3.13, 2.68, 2.24, 0.89, 1.34, 1.79, 1.79, 1.79, 2.24, 2.24, 2.24, 2.24, 2.8, 1.86, 2.23, 1.58, 0.0, -0.0, -0.0, -0.0, -0.0, -0.0, 0.63, 0.63, 0.45, 0.89, 1.6, 1.9, 3.22, 1.84, 0.65, -6.4, -7.54, -6.35, -3.97, -4.3, -5.2, -4.92, -3.82, -3.07, -1.61, -0.57, 0.0, 0.0, -1.26, -2.79, -3.47, -5.94, -6.98, -6.35, -4.73, -4.11, -4.52, -4.66, -4.66, -11.08, -11.08, -11.08, -10.68, -10.3, -10.3, -10.3, -10.3, -10.13, -10.13, -9.86, -9.86, -9.86, -9.86, -9.59, -9.37, -9.37, -9.08, -9.13, -8.87, -7.95, -6.61, -5.72, -5.72, -5.98, -5.04, -4.6, -3.52, -2.92, -2.32, -1.7, -1.08, -0.57, 0.0, 0.0, 0.59, 1.13, 1.84, 2.21, 3.32, 3.53, 3.98, 3.53, 3.09, 3.07, 2.68, 1.34, 1.34, 1.79, 1.79, 1.79, 2.24, 2.24, 2.24, 2.24, 2.68, 1.79, 1.79, 1.34, -0.0, -0.0, -0.0, -0.0, 0.63, 0.95, 1.2, 1.34, 0.0, 0.0, -0.45, -0.89, 0.0, 1.79, 1.79, -4.47, -7.28, -7.32, -5.06, -2.5, -2.68, -3.97, -4.47, -3.58, -2.68, -2.17, -2.12, -2.6, -3.74, -6.7, -7.64, -6.92, -7.61, -5.72, -3.14, -2.5, -3.07, -4.09, -4.09, -10.68, -10.68, -10.55, -10.55, -10.3, -10.3, -10.3, -10.3, -10.13, -10.13, -9.86, -9.86, -9.86, -9.86, -9.86, -9.37, -9.37, -9.08, -8.85, -8.56, -7.61, -6.33, -5.7, -5.32, -5.08, -4.63, -4.63, -4.16, -3.52, -3.56, -2.92, -1.76, -1.14, -0.53, 0.0, 0.61, 1.08, 1.76, 2.23, 3.14, 3.6, 3.87, 3.87, 3.39, 3.07, 3.07, 2.24, 1.79, 1.79, 2.24, 2.24, 2.24, 1.79, 1.79, 1.79, 2.24, 0.89, 0.89, 0.89, 0.0, -0.0, -0.6, -0.63, -0.0, 1.26, 1.6, 1.34, 1.79, 0.0, -0.89, -2.12, -0.0, 0.45, 0.89, 0.0, -5.26, -6.7, -5.37, -3.22, -1.2, -2.6, -3.87, -5.64, -4.87, -4.47, -4.92, -6.21, -8.14, -8.24, -6.7, -7.02, -4.12, -2.53, -1.2, -1.24, -2.79, -4.12, -4.12, -10.55, -10.55, -10.55, -10.55, -10.55, -10.3, -10.3, -10.13, -10.13, -10.13, -9.76, -9.5, -9.5, -9.5, -9.66, -9.37, -9.37, -9.08, -8.53, -8.24, -7.95, -6.97, -6.33, -5.69, -5.29, -4.63, -4.63, -3.97, -3.97, -3.52, -2.89, -2.4, -1.73, -0.57, 0.0, 0.0, 1.16, 1.73, 1.94, 2.86, 3.72, 4.11, 3.7, 3.82, 3.39, 3.07, 2.6, 2.17, 2.17, 2.68, 2.68, 2.24, 1.79, 1.26, 1.26, 1.79, 1.79, 0.45, 0.0, 0.0, 0.0, -0.89, -1.2, -0.0, 1.26, 1.6, 1.7, 1.2, -0.0, -1.2, -1.49, -1.7, 0.0, 0.0, 0.0, -0.6, -1.88, -3.48, -4.47, -1.4, -1.88, -3.09, -5.64, -7.01, -7.12, -7.6, -8.01, -8.19, -6.36, -3.53, -1.79, -1.58, -1.2, -0.65, -1.16, -2.51, -3.15, -3.15, -10.55, -10.55, -10.55, -10.55, -10.55, -10.55, -10.3, -10.13, -9.76, -9.76, -9.76, -9.5, -9.5, -9.3, -9.3, -9.02, -9.37, -9.08, -8.53, -8.24, -7.93, -7.61, -6.71, -6.33, -5.69, -5.04, -4.63, -3.97, -4.0, -3.35, -3.37, -2.92, -1.73, -1.2, -0.57, 0.0, 0.58, 1.16, 1.73, 2.22, 3.16, 3.88, 4.11, 3.6, 3.2, 2.91, 2.4, 2.6, 2.6, 2.68, 2.68, 2.24, 1.79, 1.58, 1.58, 1.58, 1.26, 1.34, 0.0, -0.89, -0.95, -0.6, -0.89, 0.0, 1.2, 1.6, 1.6, 1.2, -0.63, -0.89, -2.12, -2.54, -1.26, -0.6, 0.0, 0.0, -1.2, -3.15, -3.72, -3.16, -3.48, -3.14, -3.98, -5.64, -5.94, -5.77, -6.22, -4.43, -3.13, -2.49, -2.63, -0.99, -1.84, -1.8, -1.8, -2.3, -2.48, -2.48, -10.16, -10.16, -10.16, -10.16, -10.16, -10.16, -9.92, -9.76, -9.76, -9.76, -9.76, -9.76, -9.3, -9.3, -9.3, -9.3, -9.02, -9.37, -8.82, -8.24, -7.93, -7.61, -6.98, -6.33, -5.69, -5.26, -4.6, -4.16, -4.0, -3.35, -2.89, -2.26, -2.29, -1.65, -0.58, 0.0, 0.0, 0.59, 1.19, 1.76, 2.48, 3.43, 3.72, 3.35, 3.6, 2.68, 2.4, 2.4, 2.6, 2.63, 2.68, 2.68, 2.24, 2.12, 0.6, 0.6, -0.0, -0.0, 0.0, 0.0, -0.95, -1.26, -1.26, -0.63, 1.79, 1.2, 0.63, -0.0, -1.2, -1.79, -3.04, -3.2, -2.4, -1.7, 0.0, 0.0, -0.57, -2.23, -4.43, -3.84, -4.84, -5.69, -4.0, -4.02, -5.02, -5.78, -5.36, -3.13, -1.86, -2.68, -3.87, -4.02, -2.84, -3.48, -3.15, -2.48, -2.73, -2.73, -10.4, -10.4, -10.16, -10.16, -10.16, -10.16, -10.02, -9.76, -9.76, -9.76, -9.76, -9.58, -9.3, -9.3, -9.3, -9.3, -9.02, -8.78, -8.5, -8.22, -7.93, -7.61, -7.32, -6.98, -6.34, -5.69, -5.04, -4.63, -3.97, -3.52, -2.89, -2.4, -2.29, -1.65, -1.14, -0.53, 0.0, 0.0, 0.55, 1.23, 2.23, 2.84, 3.72, 3.72, 3.72, 3.14, 2.68, 2.4, 2.6, 2.63, 2.68, 2.24, 2.24, 2.17, 1.86, -0.0, -0.0, -0.0, -0.0, -0.0, -0.45, -1.26, -1.24, 0.0, 0.63, 1.79, -0.0, 0.0, -1.34, -1.79, -2.12, -2.21, -2.86, -2.6, -0.95, -0.0, 0.0, -1.24, -2.53, -4.19, -4.46, -6.7, -6.15, -3.82, -3.58, -4.73, -5.02, -2.79, -2.5, -3.39, -4.87, -5.36, -4.0, -4.12, -3.78, -3.48, -3.15, -3.15, -10.4, -10.4, -10.4, -10.16, -10.16, -10.02, -10.02, -9.76, -9.76, -9.76, -9.58, -9.58, -9.3, -9.3, -9.3, -9.3, -8.78, -8.78, -8.78, -8.5, -8.22, -7.32, -7.32, -6.7, -6.34, -6.35, -5.7, -5.06, -4.42, -4.0, -3.56, -2.73, -2.26, -1.76, -1.14, -0.53, 0.0, 0.0, 0.55, 1.11, 1.8, 2.84, 3.14, 2.15, 2.15, 3.72, 3.35, 2.91, 2.63, 2.63, 2.68, 2.24, 2.24, 2.24, 1.7, 0.6, -0.0, -0.0, -0.0, -0.0, 0.0, -0.4, -0.57, 0.0, 0.0, -0.0, -0.0, 0.0, 0.0, -1.34, -1.79, -1.4, -2.29, -3.07, -2.68, -0.95, -0.63, -1.34, -2.15, -2.84, -3.49, -6.41, -6.79, -5.59, -3.07, -2.68, -3.72, -4.09, -4.24, -4.43, -5.32, -5.36, -4.88, -4.66, -4.09, -3.78, -3.15, -3.15, -10.4, -10.4, -10.4, -10.02, -10.02, -10.02, -10.02, -10.02, -9.76, -9.76, -9.76, -9.58, -9.21, -8.94, -8.94, -8.94, -8.73, -8.45, -8.78, -8.78, -8.22, -7.6, -7.6, -6.98, -6.69, -6.35, -5.72, -5.08, -4.66, -4.0, -3.56, -2.89, -2.75, -2.29, -1.8, -1.14, -0.59, 0.0, 0.0, 0.57, 1.8, 2.51, 2.84, 2.79, 2.79, 2.4, 2.23, 3.07, 2.91, 2.63, 2.6, 2.24, 2.24, 2.24, 2.24, 1.79, 0.95, -0.0, -0.0, -0.0, -0.0, 0.0, 0.0, 0.0, -0.45, -0.63, -0.6, -0.0, 0.0, -0.89, -2.6, -3.83, -2.29, -2.31, -3.79, -2.53, -2.17, -1.79, -2.24, -2.86, -3.48, -6.15, -7.61, -6.79, -4.43, -1.9, -2.63, -4.11, -5.67, -6.67, -5.78, -4.87, -5.36, -4.73, -4.52, -4.66, -4.12, -4.12, -10.27, -10.27, -10.27, -10.02, -10.02, -10.02, -10.02, -10.02, -9.76, -9.76, -9.76, -9.21, -9.21, -8.94, -8.94, -8.73, -8.73, -8.45, -8.45, -8.19, -8.19, -8.19, -7.3, -6.98, -6.69, -6.35, -6.0, -5.34, -4.69, -4.24, -4.03, -3.37, -2.92, -2.44, -1.65, -1.14, -0.53, 0.0, 0.0, 0.57, 1.13, 2.23, 2.23, 2.53, 2.5, 1.49, 1.86, 2.68, 2.91, 2.6, 2.6, 2.17, 2.24, 2.24, 2.24, 1.79, 1.79, 1.2, 0.8, -0.0, -0.0, -0.45, -0.45, -1.2, -1.34, -1.34, -1.7, -2.23, -1.79, -2.21, -5.75, -6.07, -3.45, -1.6, -1.52, -3.88, -3.9, -1.9, -2.17, -2.91, -3.72, -4.73, -6.95, -7.23, -5.65, -3.83, -2.21, -2.68, -3.53, -4.43, -5.2, -4.77, -4.92, -4.92, -5.2, -5.44, -4.66, -4.66, -9.88, -9.88, -9.88, -9.88, -9.63, -9.63, -9.63, -9.63, -9.63, -9.38, -9.21, -9.21, -9.21, -9.21, -8.94, -8.73, -8.73, -8.73, -8.45, -8.15, -7.86, -7.86, -7.59, -7.3, -6.69, -6.35, -5.72, -5.36, -3.79, -4.05, -4.03, -4.03, -3.4, -2.96, -2.29, -1.8, -1.14, -0.59, 0.0, 0.0, 1.13, 1.84, 2.23, 2.53, 2.5, 1.9, 2.23, 2.4, 2.6, 2.6, 2.17, 2.17, 2.24, 2.24, 2.24, 2.24, 1.79, 1.79, 1.6, 0.57, -0.42, -1.26, -1.26, -1.26, -0.95, -0.45, -0.63, -2.24, -4.02, -5.81, -4.8, -3.07, -3.13, -2.21, -0.72, -2.31, -3.09, -2.15, -1.9, -2.21, -2.53, -2.68, -3.07, -5.75, -6.15, -5.06, -3.83, -2.23, -1.86, -2.68, -3.53, -3.87, -4.88, -4.92, -5.32, -5.64, -5.02, -5.02, -9.88, -9.88, -9.88, -9.88, -9.63, -9.63, -9.63, -9.63, -9.63, -9.63, -9.21, -9.21, -9.21, -9.21, -8.94, -8.73, -8.73, -8.73, -8.38, -8.15, -8.15, -8.15, -7.59, -7.59, -6.97, -6.35, -5.72, -5.72, -5.1, -3.9, -4.08, -4.05, -3.83, -3.42, -2.77, -2.32, -1.67, -1.16, -0.61, 0.0, 0.59, 1.13, 1.84, 1.61, 1.88, 1.9, 1.86, 2.17, 2.17, 2.17, 2.17, 2.17, 2.68, 2.68, 2.68, 2.24, 2.24, 1.79, 1.79, 1.26, -0.0, -1.26, -1.4, -0.57, -0.0, 0.0, 0.0, 0.0, -1.9, -2.23, -1.26, 0.0, -2.12, -2.8, -2.07, -1.27, -1.4, -1.24, -0.54, -0.61, 0.0, -0.53, -1.58, -2.5, -4.71, -5.06, -4.45, -3.47, -1.84, -1.2, -1.49, -1.79, -3.09, -4.44, -4.92, -4.87, -4.43, -4.43, -9.88, -9.88, -9.88, -9.88, -9.63, -9.63, -9.63, -9.63, -9.63, -9.48, -9.21, -9.21, -9.21, -9.21, -9.01, -8.73, -8.38, -8.38, -8.38, -8.15, -8.15, -7.81, -7.55, -7.27, -6.97, -6.35, -6.34, -5.72, -5.72, -4.73, -4.47, -4.08, -4.08, -3.42, -3.21, -2.8, -1.67, -1.16, -0.61, 0.0, 0.0, 1.13, 1.16, 1.61, 1.61, 1.58, 2.12, 2.17, 2.17, 2.17, 2.17, 2.24, 2.68, 2.68, 2.68, 2.24, 2.24, 1.79, 1.79, 1.79, -0.0, -0.0, -0.0, -0.0, 0.0, 0.0, 0.0, 0.0, 0.0, -0.8, 0.0, 0.0, -0.8, -4.84, -4.46, -1.88, -0.71, 0.57, 0.65, 0.73, 0.0, 0.0, -0.61, -1.88, -2.53, -4.12, -4.47, -4.1, -2.0, -1.84, -0.54, 0.0, -0.63, -2.68, -4.47, -4.47, -4.43, -4.43, -9.88, -9.88, -9.88, -9.88, -9.63, -9.63, -9.63, -9.63, -9.48, -9.48, -9.48, -9.21, -9.21, -9.21, -9.21, -8.65, -8.65, -8.65, -8.65, -8.44, -7.81, -7.81, -7.55, -7.55, -7.27, -6.67, -6.34, -5.72, -5.72, -5.38, -4.47, -4.08, -3.84, -3.84, -3.45, -2.8, -2.16, -1.7, -1.19, -0.55, 0.0, 0.59, 1.16, 1.16, 1.2, 1.86, 2.12, 2.12, 2.12, 2.12, 2.24, 2.24, 2.68, 2.68, 2.68, 2.24, 2.24, 1.79, 1.79, 1.79, 1.2, 0.0, 0.0, 0.0, 0.0, 0.0, 0.0, 0.0, -0.45, -0.63, -0.6, -1.6, -2.84, -4.95, -4.56, -2.0, 0.0, 2.73, 3.33, 2.2, 0.0, 0.0, -1.33, -1.88, -2.15, -3.22, -3.84, -2.73, -2.0, -1.84, -0.54, 0.0, 0.63, 0.0, -2.17, -4.02, -4.92, -4.92, -9.88, -9.88, -9.88, -9.88, -9.88, -9.63, -9.48, -9.48, -9.48, -9.48, -9.48, -9.48, -9.21, -8.84, -8.84, -8.65, -8.65, -8.65, -8.65, -8.08, -8.08, -7.85, -7.85, -7.23, -7.23, -6.95, -6.34, -6.04, -5.44, -5.1, -4.47, -4.75, -4.47, -4.1, -4.1, -3.45, -2.82, -1.7, -1.73, -0.55, 0.0, 0.0, 0.61, 1.2, 1.0, 1.26, 1.7, 1.79, 1.79, 1.79, 2.24, 2.24, 2.68, 2.68, 2.24, 2.24, 1.79, 1.79, 1.79, 1.79, 1.7, 1.6, 1.34, 0.45, 0.0, 0.0, 0.0, -0.0, -0.45, -0.89, -1.2, -2.12, -3.35, -2.35, -2.18, -1.52, 0.0, 2.2, 2.35, 0.67, 0.0, -0.51, -0.53, -1.2, -1.61, -1.88, -2.07, -1.8, -1.8, -1.16, 0.0, 0.0, 0.63, 0.63, 0.0, -1.7, -5.78, -5.78, -9.88, -9.88, -9.88, -9.88, -9.88, -9.63, -9.48, -9.48, -9.48, -9.48, -9.1, -9.1, -9.1, -8.84, -8.65, -8.65, -8.65, -8.65, -8.08, -8.08, -8.08, -7.51, -7.51, -7.51, -7.23, -6.95, -6.64, -6.04, -5.71, -5.1, -5.08, -4.75, -4.75, -4.47, -4.1, -3.45, -2.82, -2.18, -1.73, -1.08, -0.57, 0.0, 0.53, 0.57, 0.54, 1.26, 1.34, 1.79, 1.79, 1.79, 1.79, 2.24, 2.24, 2.24, 2.24, 1.79, 1.79, 1.79, 1.79, 1.7, 1.7, 1.6, -0.0, 0.0, 0.0, 0.0, 0.0, 0.0, 0.0, -0.45, -0.89, -1.34, -1.2, -1.08, -0.76, -1.58, -1.52, -1.52, -1.52, -1.35, -0.59, 0.0, -0.53, -0.65, -1.2, -1.16, -1.33, -1.13, -1.33, -0.53, 0.0, 0.0, 0.0, 0.0, 0.63, 0.0, -1.79, -4.02, -9.88, -9.88, -9.88, -9.88, -9.88, -9.35, -9.1, -9.1, -9.1, -9.1, -9.1, -9.1, -9.1, -9.1, -8.65, -8.65, -8.65, -8.29, -8.08, -8.08, -7.73, -7.51, -7.51, -7.51, -7.51, -7.25, -6.64, -6.32, -5.71, -5.1, -5.08, -4.75, -4.75, -4.75, -4.47, -3.85, -3.47, -2.4, -1.73, -1.23, -0.57, 0.0, 0.0, 0.0, 0.71, 1.26, 1.34, 1.34, 1.79, 1.79, 1.79, 2.24, 2.24, 2.24, 1.79, 1.79, 1.34, 1.79, 1.7, 2.12, 2.12, 1.7, 0.0, 0.0, 0.0, 0.0, 0.0, 0.0, 0.0, 0.0, -0.89, -1.34, -1.79, -1.49, -1.55, -1.49, -3.0, -5.3, -5.59, -3.97, -1.8, -0.61, -0.61, -0.61, -0.53, -0.61, -0.59, -0.59, 0.0, 0.0, 0.0, 0.0, 0.0, 0.0, 0.0, 0.0, 0.0, -1.79, -9.88, -9.88, -9.48, -9.48, -9.35, -9.35, -9.1, -9.1, -9.1, -9.1, -9.1, -9.1, -9.1, -8.93, -8.93, -8.65, -8.65, -8.65, -8.37, -8.37, -8.0, -7.8, -7.8, -7.8, -7.51, -7.51, -6.92, -6.32, -5.71, -5.69, -5.08, -5.08, -4.75, -4.75, -4.47, -3.85, -3.47, -2.84, -2.2, -1.76, -1.13, 0.0, 0.0, 0.0, 0.0, 1.6, 1.34, 1.34, 1.34, 1.34, 1.79, 1.7, 1.7, 1.79, 1.34, 1.34, 1.34, 1.7, 2.12, 2.12, 2.12, 2.12, 1.2, 0.0, 0.0, 0.0, 0.0, 0.0, -0.0, 0.0, 0.0, -1.34, -2.68, -2.54, -0.87, 0.0, -0.73, -3.11, -4.71, -3.91, -1.94, -0.59, -0.63, 0.0, 0.0, 0.0, 0.0, 0.0, 0.0, 0.0, 0.0, 0.0, -0.6, -0.6, 0.0, 0.0, 0.0, 0.0, -9.48, -9.48, -9.48, -9.48, -9.35, -9.35, -9.35, -9.1, -9.1, -9.1, -9.1, -9.1, -8.93, -8.93, -8.93, -8.93, -8.93, -8.55, -8.37, -8.0, -8.0, -8.0, -7.44, -7.44, -7.44, -7.17, -6.92, -6.59, -6.28, -5.69, -5.08, -5.08, -5.08, -5.08, -4.47, -4.75, -3.84, -3.08, -2.2, -1.76, -1.13, -0.61, 0.0, 0.0, 0.0, 0.32, 1.34, 0.89, 0.89, 1.34, 1.34, 1.7, 1.6, 1.34, 1.34, 1.34, 1.34, 1.7, 2.12, 2.12, 2.12, 2.12, 1.34, 1.34, 0.0, 0.0, 0.0, 0.0, -0.0, 0.0, 0.0, -1.2, -3.13, -3.13, -1.6, 0.8, 0.99, 0.0, -1.33, -2.4, -1.33, 0.0, 0.0, 0.0, 0.72, 0.0, 0.0, 0.0, 0.0, 0.0, 0.0, -0.6, -1.26, -1.26, -0.57, -0.57, -0.8, -0.8, -9.48, -9.48, -9.48, -9.35, -9.35, -9.35, -9.35, -9.35, -9.1, -9.1, -9.1, -9.1, -8.93, -8.93, -8.93, -8.93, -8.55, -8.55, -8.55, -8.0, -8.0, -7.64, -7.44, -7.44, -7.44, -7.44, -7.44, -6.87, -6.28, -5.69, -5.08, -5.37, -5.37, -5.08, -5.06, -4.75, -3.84, -3.49, -2.61, -2.22, -1.13, -0.61, -0.65, 0.0, 0.0, 0.63, 0.89, 0.89, 0.45, 0.89, 1.2, 1.2, 0.95, 0.89, 0.89, 0.63, 1.2, 1.6, 1.86, 1.86, 1.86, 1.86, 1.6, 1.34, 1.34, 1.34, 1.34, 1.79, 0.63, -0.0, -0.45, -1.6, -2.54, -2.68, -1.79, 0.0, 0.6, 0.57, 0.0, 0.0, 0.0, 0.59, 0.69, 0.65, 0.67, 0.0, 0.0, 0.0, 0.0, 0.0, -0.65, -1.26, -1.86, -1.24, -1.24, -0.71, -0.71, -0.71, -9.48, -9.48, -9.48, -9.35, -9.35, -9.35, -9.35, -9.35, -9.35, -9.1, -9.1, -8.93, -8.93, -8.93, -8.93, -8.55, -8.55, -8.55, -8.55, -8.0, -8.0, -7.9, -7.44, -7.44, -7.44, -7.44, -7.44, -6.87, -6.28, -5.69, -5.65, -5.37, -5.37, -5.37, -5.06, -4.75, -4.12, -3.49, -3.12, -2.22, -1.6, -1.16, -0.65, -0.71, 0.0, 0.0, 0.45, 0.0, 0.0, 0.0, 0.63, 0.63, 0.89, 0.89, 0.63, 0.63, 0.95, 1.26, 1.58, 1.86, 1.86, 2.23, 1.86, 1.26, 1.34, 1.34, 1.26, 1.58, 0.63, -0.0, -0.45, -1.7, -2.6, -2.6, -1.79, 0.0, 0.0, 0.0, 0.7, 1.27, 3.9, 4.07, 3.61, 2.06, 0.69, 0.0, 0.0, 0.0, -0.7, -0.66, -1.4, -1.86, -2.0, -1.86, -1.24, -1.24, -1.24, -1.24, -9.48, -9.48, -9.35, -9.35, -9.35, -9.35, -9.35, -9.35, -8.96, -8.72, -8.55, -8.93, -8.93, -8.55, -8.55, -8.55, -8.55, -8.55, -8.55, -8.27, -8.27, -7.9, -7.72, -7.72, -7.72, -7.44, -7.44, -6.87, -6.79, -6.23, -5.65, -5.37, -5.37, -5.37, -5.06, -5.06, -4.43, -3.83, -3.49, -2.86, -1.6, -1.16, -1.2, -1.24, -0.6, 0.0, 0.0, 0.0, 0.0, 0.0, -0.0, -0.0, 0.0, -0.0, -0.0, 0.63, 0.95, 1.26, 1.26, 1.86, 1.86, 2.23, 1.86, 1.26, 1.26, 1.34, 1.26, 0.63, 0.63, -0.0, -0.89, -1.7, -2.54, -2.4, -0.63, 0.63, 0.0, 0.0, 0.78, 3.69, 6.79, 7.28, 5.68, 2.82, 1.36, 0.0, 0.0, -0.63, -1.35, -1.27, -2.16, -2.6, -2.4, -1.86, -1.86, -1.26, -1.26, -1.26, -9.48, -9.48, -9.35, -9.35, -9.35, -9.35, -8.96, -8.96, -8.96, -8.96, -8.55, -8.55, -8.55, -8.55, -8.55, -8.55, -8.55, -8.55, -8.43, -8.27, -7.9, -7.9, -7.9, -7.72, -7.72, -7.72, -7.35, -7.15, -6.79, -6.23, -5.65, -5.65, -5.65, -5.65, -5.06, -5.35, -4.43, -3.83, -3.49, -2.86, -2.23, -1.61, -1.2, -1.24, -0.6, 0.0, 0.0, -0.45, 0.0, -0.0, -0.0, 0.0, 0.0, -0.0, -0.0, -0.0, 0.95, 0.6, 1.26, 1.86, 2.23, 2.23, 2.23, 1.86, 1.26, 1.26, 1.26, 0.63, -0.0, -0.0, -0.89, -1.7, -1.86, -1.26, 0.0, 1.2, 0.6, 0.0, 0.82, 3.9, 6.95, 6.87, 4.75, 2.82, 2.06, 0.74, 0.0, -1.41, -1.41, -2.4, -2.53, -2.24, -2.24, -2.24, -1.7, -1.2, -1.2, -1.2, -9.48, -9.48, -9.35, -9.35, -8.96, -8.96, -8.96, -8.96, -8.96, -8.82, -8.55, -8.55, -8.55, -8.55, -8.55, -8.55, -8.82, -8.82, -8.43, -8.27, -7.9, -7.9, -7.9, -7.72, -7.72, -7.72, -7.35, -7.35, -6.79, -6.23, -6.23, -5.65, -5.65, -5.65, -5.65, -5.35, -4.74, -4.11, -3.49, -2.86, -2.51, -1.88, -1.61, -1.58, -1.26, -0.63, -0.89, -0.89, -0.89, -0.63, -0.0, -0.0, -0.0, -0.0, -0.0, -0.0, -0.0, 0.6, 1.26, 1.58, 1.9, 1.9, 1.9, 1.86, 1.26, 1.26, 1.26, -0.0, -0.0, -0.6, -0.89, -1.34, -0.89, 0.0, 0.63, 1.2, 0.6, 0.65, 2.3, 3.84, 4.81, 4.5, 3.91, 4.23, 2.69, 0.69, -0.67, -1.94, -1.4, -0.63, -0.89, -1.79, -2.24, -2.24, -1.34, -0.89, -0.89, -0.89, -9.6, -9.6, -9.35, -8.96, -8.96, -8.96, -8.96, -8.96, -8.82, -8.82, -8.55, -8.55, -8.55, -8.55, -8.55, -8.82, -8.82, -8.43, -8.43, -8.27, -7.9, -7.9, -7.9, -7.72, -7.72, -7.35, -7.35, -7.35, -6.79, -6.23, -6.51, -5.93, -5.93, -5.93, -5.93, -5.35, -4.74, -4.71, -3.79, -3.16, -2.84, -2.21, -1.88, -1.58, -1.26, -1.2, -1.34, -1.34, -1.34, -0.63, -0.0, -0.0, -0.0, -0.0, -0.0, -0.0, -0.0, -0.0, 0.8, 1.58, 1.58, 1.9, 1.9, 1.9, 1.24, 1.2, 1.9, 1.2, -0.0, -0.0, -0.0, -0.95, -0.0, 0.0, 0.45, 0.63, 0.6, 0.8, 2.21, 3.22, 2.41, 3.0, 4.5, 4.14, 1.41, 0.0, -1.27, -1.61, -0.95, -0.63, -0.89, -1.79, -2.24, -2.24, -1.34, -0.63, -0.63, -0.63, -9.6, -9.6, -9.2, -8.96, -8.96, -8.96, -8.96, -8.96, -8.82, -8.82, -8.82, -8.55, -8.55, -8.55, -8.55, -8.82, -8.43, -8.43, -8.43, -8.27, -7.9, -8.15, -8.15, -7.72, -7.35, -7.35, -7.35, -7.35, -6.79, -7.07, -6.51, -6.15, -5.93, -5.93, -5.93, -5.59, -5.29, -4.71, -4.07, -3.48, -2.84, -2.53, -2.5, -1.9, -1.86, -1.7, -1.34, -1.34, -1.2, -0.95, -0.63, -0.0, -0.0, -0.0, -0.0, -0.0, -0.0, -0.0, 0.6, 1.26, 1.58, 1.9, 1.61, 1.2, 1.2, 0.71, 0.57, 0.57, 0.71, -0.0, -0.0, -0.0, -0.0, -0.0, 0.0, 0.0, 0.45, 0.8, 1.6, 1.58, 1.49, 1.49, 2.15, 1.2, 0.0, -0.61, -1.86, -2.17, -1.86, -1.2, -1.24, -1.7, -2.68, -2.24, -1.79, -1.2, -1.2, -1.2, -9.6, -9.6, -9.2, -8.96, -8.96, -8.96, -8.96, -8.82, -8.82, -8.82, -8.82, -8.55, -8.55, -8.55, -8.82, -8.82, -8.43, -8.43, -8.43, -8.27, -7.9, -8.15, -8.15, -7.61, -7.61, -7.35, -7.35, -7.35, -7.07, -7.07, -6.51, -6.15, -6.15, -6.15, -5.93, -5.59, -5.29, -4.71, -4.07, -3.78, -3.14, -2.79, -2.5, -2.4, -2.12, -1.79, -1.79, -1.79, -1.7, -1.2, -0.95, -0.95, -0.6, -0.0, -0.0, -0.0, -0.0, -0.0, 0.6, 1.26, 1.24, 1.9, 1.88, 1.61, 1.4, 0.57, 0.71, 0.71, 1.24, 0.57, 0.6, 0.4, 0.6, -0.0, -0.0, -0.0, 0.0, 0.0, 0.45, 0.95, 0.71, 1.24, 0.8, 0.0, -0.63, -0.6, -1.34, -2.68, -3.53, -3.45, -2.51, -2.21, -2.6, -2.68, -2.24, -1.79, -1.79, -1.79, -9.6, -9.2, -9.2, -8.96, -8.96, -8.96, -8.82, -8.82, -8.82, -8.82, -8.82, -8.55, -8.55, -8.82, -8.82, -8.82, -8.43, -8.43, -8.43, -8.27, -8.15, -8.15, -7.76, -7.61, -7.61, -7.61, -7.61, -7.61, -7.07, -7.07, -6.51, -6.15, -6.15, -6.15, -6.15, -5.86, -5.29, -4.94, -4.65, -4.0, -3.35, -2.79, -2.68, -2.4, -2.17, -2.24, -2.24, -2.24, -1.7, -1.6, -1.2, -1.2, -0.6, -0.0, -0.0, -0.0, -0.0, -0.0, 0.8, 1.26, 1.24, 1.9, 1.88, 1.88, 1.16, 1.16, 0.71, 0.57, 0.57, 0.6, 0.4, 0.63, 0.89, 1.2, -0.0, -0.0, -0.0, -0.0, -0.0, 0.0, 0.6, 0.63, -0.0, 0.6, 0.0, 1.2, 0.0, -2.24, -4.43, -6.58, -5.86, -3.78, -3.07, -2.68, -2.17, -2.12, -2.12, -2.12, -9.2, -9.2, -9.2, -9.2, -8.96, -8.96, -8.82, -8.82, -8.82, -8.82, -8.82, -8.55, -8.55, -8.82, -8.82, -8.43, -8.43, -8.43, -8.43, -8.15, -8.15, -8.15, -7.76, -7.61, -7.61, -7.61, -7.61, -7.61, -7.07, -7.07, -6.7, -6.51, -6.15, -6.15, -6.15, -5.86, -5.49, -4.94, -4.65, -4.0, -3.72, -3.6, -2.68, -2.91, -2.6, -2.24, -2.24, -2.17, -2.12, -1.7, -1.7, -1.6, -1.2, -0.0, -0.0, -0.0, -0.0, -0.0, 0.57, 0.8, 1.24, 1.61, 1.61, 1.84, 1.84, 1.13, 0.54, -0.0, -0.0, -0.0, -0.0, -0.0, 0.0, 0.45, 0.6, -0.0, -0.0, -0.0, -0.0, 0.0, 0.0, -0.0, 0.65, 0.95, 1.24, 1.86, 1.7, 0.0, -2.91, -5.78, -7.76, -6.54, -3.07, -2.6, -2.4, -1.86, -1.86, -1.86, -9.2, -9.2, -9.2, -9.2, -8.96, -8.82, -8.82, -8.82, -8.82, -8.82, -8.82, -8.82, -8.82, -8.82, -8.82, -8.43, -8.43, -8.43, -8.43, -8.15, -8.15, -8.15, -7.76, -7.61, -7.61, -7.61, -7.61, -7.61, -7.23, -7.07, -6.7, -6.51, -6.15, -6.15, -6.15, -5.86, -5.49, -5.21, -4.65, -4.0, -3.88, -3.6, -3.32, -2.91, -2.63, -2.68, -2.68, -2.6, -2.17, -2.12, -1.7, -1.7, -0.95, -0.0, -0.0, -0.0, -0.0, -0.0, -0.0, 0.71, 0.71, 1.2, 1.16, 1.13, 1.27, 1.13, 0.59, -0.0, -0.0, -0.0, -0.0, -0.6, -0.63, -0.0, -0.0, -0.0, -0.0, -0.0, 0.0, 0.0, 0.0, 0.57, 1.24, 1.2, 1.58, 1.86, 2.68, 2.17, 0.0, -2.91, -6.11, -3.98, -2.17, -1.9, -1.9, -1.9, -1.9, -1.9, -9.2, -9.2, -9.2, -9.2, -8.96, -8.82, -8.82, -8.82, -8.82, -8.82, -8.82, -8.82, -8.82, -8.82, -8.82, -8.43, -8.43, -8.43, -8.68, -8.15, -8.15, -8.15, -8.15, -7.61, -7.61, -7.61, -7.61, -7.61, -7.23, -7.07, -6.7, -6.51, -6.51, -6.15, -6.15, -6.41, -5.86, -5.58, -4.84, -4.55, -3.88, -3.6, -3.39, -3.09, -3.07, -3.13, -2.68, -2.6, -2.6, -2.17, -2.12, -1.7, -0.95, -0.63, -0.0, -0.0, -0.0, -0.0, -0.0, -0.0, 0.54, 0.54, 0.53, 0.59, 0.57, 0.57, 0.57, -0.0, -0.0, -0.0, -0.0, -0.57, -0.8, -0.6, -0.0, -0.0, -0.0, -0.63, 0.0, 0.0, 0.45, 0.61, 1.2, 1.34, 1.26, 1.86, 2.17, 2.68, 2.24, -0.63, -3.07, -1.79, -0.0, -1.24, -1.9, -1.61, -1.61, -1.61, -9.2, -9.2, -9.2, -9.2, -8.96, -8.82, -8.82, -8.82, -8.82, -8.82, -8.82, -8.82, -8.82, -8.82, -8.43, -8.43, -8.43, -8.43, -8.68, -8.15, -8.15, -8.15, -7.76, -7.61, -7.61, -7.61, -7.61, -7.61, -7.23, -7.07, -6.7, -6.7, -6.51, -6.51, -6.41, -6.41, -5.86, -5.75, -4.84, -4.55, -4.4, -4.11, -3.82, -3.53, -3.09, -3.13, -3.13, -2.68, -2.68, -2.24, -2.24, -1.7, -1.2, -0.89, 0.0, -0.0, -0.0, -0.0, -0.0, -0.0, -0.0, -0.0, -0.0, -0.0, -0.0, -0.0, 0.57, -0.0, -0.0, -0.0, -0.0, -0.54, -0.57, -0.0, -0.0, -0.0, 0.0, -0.45, -0.45, 0.0, 0.63, 0.63, 0.59, 1.26, 1.2, 1.26, 2.17, 3.13, 2.68, 0.89, -0.8, -0.6, -0.0, -0.6, -1.58, -1.9, -1.9, -1.9, -9.2, -9.2, -9.2, -9.2, -8.82, -8.82, -8.82, -8.82, -8.82, -8.82, -8.82, -8.82, -8.82, -8.82, -8.43, -8.43, -8.43, -8.43, -8.68, -8.15, -8.15, -8.15, -7.76, -7.61, -7.61, -7.61, -7.61, -7.61, -7.61, -7.07, -7.07, -6.7, -6.7, -6.51, -6.41, -6.41, -6.03, -5.75, -5.21, -4.69, -4.4, -4.11, -3.87, -3.39, -3.53, -3.13, -3.13, -3.13, -2.68, -2.68, -2.24, -1.6, -1.2, -0.95, -0.89, -0.0, -0.0, -0.0, -0.0, -0.0, -0.0, -0.0, -0.0, -0.0, -0.0, -0.0, -0.0, -0.0, -0.0, -0.0, -0.0, -0.0, -0.0, -0.0, -0.0, 0.63, -0.0, 0.0, -0.45, 0.0, 0.71, -0.0, -0.0, -0.0, 0.45, 0.6, 1.86, 2.68, 2.68, 2.17, -0.0, -0.99, -1.6, -1.34, -1.49, -1.86, -1.86, -1.86, -9.2, -9.2, -9.2, -9.2, -8.96, -8.82, -8.82, -8.82, -8.82, -8.82, -8.82, -8.82, -8.82, -8.82, -8.43, -8.43, -8.43, -8.68, -8.68, -8.15, -8.15, -8.15, -8.15, -7.76, -7.61, -7.61, -7.61, -7.61, -7.61, -7.23, -7.07, -6.7, -6.7, -6.7, -6.41, -6.41, -6.03, -5.75, -5.6, -5.08, -4.8, -4.19, -4.3, -3.87, -3.53, -3.58, -3.13, -3.13, -3.13, -2.68, -2.24, -1.7, -1.2, -1.2, -0.95, -0.63, -0.0, -0.0, 0.71, 0.54, 0.65, -0.0, 0.65, 0.54, 0.54, 0.65, 0.61, -0.0, -0.0, -0.0, -0.0, -0.54, -0.0, -0.0, -0.0, -0.0, -0.0, 0.0, -0.45, 0.0, 0.63, -0.0, -0.0, -0.0, 0.0, 0.0, 0.95, 2.17, 2.24, 2.24, 0.95, -1.26, -2.17, -1.79, -1.7, -2.12, -2.12, -2.12, -9.2, -9.2, -9.2, -9.2, -9.2, -8.82, -8.82, -8.82, -8.82, -8.82, -8.82, -8.82, -8.82, -8.82, -8.43, -8.43, -8.68, -8.68, -8.68, -8.15, -8.15, -8.15, -8.15, -7.76, -7.76, -7.61, -7.61, -7.61, -7.61, -7.23, -7.07, -7.07, -6.7, -6.7, -6.95, -6.41, -6.41, -6.13, -5.6, -5.08, -4.9, -4.6, -4.3, -3.87, -3.98, -3.53, -3.58, -3.58, -3.13, -2.68, -2.68, -1.7, -1.6, -1.2, -1.2, -0.95, -0.63, -0.0, 0.8, 0.57, 0.71, 0.65, 0.65, 0.65, 1.2, 1.24, 1.24, 0.71, -0.0, -0.0, -0.0, -0.65, -0.54, -0.0, -0.0, -0.0, -0.0, -0.0, -0.0, 0.0, 0.45, 0.54, -0.0, -0.61, -0.63, 0.0, 0.63, 1.79, 1.79, 1.79, 0.8, -0.6, -1.86, -1.7, -1.79, -2.24, -2.24, -2.24, -9.2, -9.2, -9.2, -9.2, -9.2, -8.82, -8.82, -8.82, -8.82, -8.82, -8.82, -8.82, -8.82, -8.82, -8.43, -8.43, -8.68, -8.68, -8.68, -8.28, -8.15, -8.15, -8.15, -8.15, -7.76, -7.76, -7.61, -7.61, -7.61, -7.61, -7.23, -7.07, -6.7, -6.95, -6.95, -6.56, -6.41, -6.28, -6.0, -5.81, -4.9, -4.6, -4.19, -4.3, -3.87, -3.98, -3.58, -3.58, -3.13, -3.13, -2.68, -2.24, -1.7, -1.7, -1.6, -1.2, -0.63, -0.0, -0.0, 0.8, 1.26, 1.24, 1.2, 1.2, 1.4, 1.49, 1.26, 1.26, 0.71, -0.0, -0.0, -0.54, -0.0, -0.0, -0.0, -0.0, -0.0, 0.0, 0.0, 0.0, 0.45, 0.8, -0.0, -1.33, -0.95, -0.45, 0.0, 0.89, 0.89, 0.89, 0.45, -0.0, -1.26, -1.7, -1.79, -2.12, -2.12, -2.12, -9.2, -9.2, -9.2, -9.2, -9.2, -8.96, -8.82, -8.82, -8.82, -8.82, -8.82, -8.82, -8.82, -8.82, -8.43, -8.68, -8.68, -8.68, -8.68, -8.68, -8.28, -8.15, -8.15, -8.15, -8.15, -7.76, -7.76, -7.61, -7.61, -7.61, -7.23, -7.07, -6.7, -6.95, -6.95, -6.56, -6.41, -6.28, -5.75, -5.81, -5.31, -5.09, -4.6, -4.19, -4.3, -3.87, -3.98, -3.58, -3.58, -3.13, -2.68, -2.24, -1.79, -1.79, -1.7, -1.2, -0.95, -0.63, -0.0, -0.0, 0.6, 1.26, 1.24, 1.2, 1.16, 0.65, 0.57, 0.6, 0.6, -0.0, -0.0, -0.0, -0.0, -0.0, 0.54, 0.54, 0.57, 0.63, 0.45, 0.0, 0.0, 0.89, -0.0, -1.16, -1.24, -0.89, 0.0, 0.0, 0.0, 0.0, 0.0, -0.45, -0.89, -1.34, -1.79, -1.86, -1.86, -1.86, -9.2, -9.2, -9.2, -9.2, -9.2, -8.96, -8.82, -8.82, -8.82, -8.82, -8.82, -8.82, -8.82, -8.82, -8.43, -8.68, -8.68, -8.68, -8.68, -8.68, -8.28, -8.15, -8.15, -8.15, -8.15, -7.76, -7.76, -7.61, -7.61, -7.61, -7.23, -7.07, -6.7, -6.95, -6.95, -6.56, -6.41, -6.28, -5.75, -5.81, -5.31, -5.09, -4.6, -4.19, -4.3, -3.87, -3.98, -3.58, -3.58, -3.13, -2.68, -2.24, -1.79, -1.79, -1.7, -1.2, -0.95, -0.63, -0.0, -0.0, 0.6, 1.26, 1.24, 1.2, 1.16, 0.65, 0.57, 0.6, 0.6, -0.0, -0.0, -0.0, -0.0, -0.0, 0.54, 0.54, 0.6, 0.63, 0.45, 0.0, 0.0, 0.0, 0.0, -0.6, -1.24, -1.2, -0.45, 0.0, 0.0, 0.0, 0.0, 0.0, -0.54, -0.57, -1.58, -1.9, -1.9, -1.9]}]